VKG358 ENGM-VHHH

Flight info

Callsign VKG358
Flight time 9h 46m
Altitude 31000
Route OKSAT L996 GETPA L727 NEGIL DCT RUMAR DCT EVGUR DCT KENIN DCT URELA DCT UDROS UM859 BAMUP/N0489F330 UM859 KARDE UN644 ROLIN DCT TAGAR DCT BT DCT BARAD M747 LUSAL N199 RASAM L88 METKA B476 DARVA/K0911F330 T898 OGOLI N193 LANOL/K0898F350 N193 SR L163 TISIB L141 KAMUD/K0902S1070 W186 SADAN Y1 OMBON W245 OVRAL B330 DAGDI/K0913S1130 B330 KWE W181 DUDIT A599 POU R473 SIERA
Aircraft B77W/H-SDE1E2E3FGHIJ2J3J4J5M1RWXY/LB1D1

Departure

Time 2026-05-07 02:11
Airport Oslo-Gardermoen International Airport (ENGM)

Arrival

Time 2026-05-07 11:58
Airport Hong Kong International Airport (VHHH)
Time Latitude Longitude Altitude Speed Heading
2026-05-07 01:53 60.19257 11.10832 696 ft 0 kts 339°
2026-05-07 02:01 60.19244 11.10842 674 ft 4 kts 344°
2026-05-07 02:01 60.19222 11.10850 663 ft 4 kts 12°
2026-05-07 02:02 60.19207 11.10836 690 ft 3 kts 50°
2026-05-07 02:02 60.19194 11.10798 686 ft 4 kts 76°
2026-05-07 02:02 60.19193 11.10754 688 ft 4 kts 106°
2026-05-07 02:02 60.19200 11.10713 690 ft 1 kts 106°
2026-05-07 02:05 60.19199 11.10717 690 ft 2 kts 106°
2026-05-07 02:05 60.19191 11.10771 687 ft 6 kts 106°
2026-05-07 02:06 60.19174 11.10890 688 ft 11 kts 106°
2026-05-07 02:06 60.19152 11.11034 691 ft 9 kts 112°
2026-05-07 02:06 60.19107 11.11101 686 ft 8 kts 182°
2026-05-07 02:06 60.19040 11.11061 688 ft 14 kts 197°
2026-05-07 02:07 60.18914 11.10987 688 ft 21 kts 196°
2026-05-07 02:07 60.18638 11.10827 686 ft 21 kts 195°
2026-05-07 02:07 60.18547 11.10776 686 ft 21 kts 195°
2026-05-07 02:08 60.18408 11.10697 684 ft 21 kts 196°
2026-05-07 02:08 60.18271 11.10618 683 ft 21 kts 196°
2026-05-07 02:08 60.18086 11.10512 684 ft 21 kts 196°
2026-05-07 02:08 60.17995 11.10458 681 ft 21 kts 197°
2026-05-07 02:09 60.17863 11.10379 680 ft 21 kts 196°
2026-05-07 02:09 60.17736 11.10307 684 ft 13 kts 196°
2026-05-07 02:09 60.17671 11.10301 680 ft 9 kts 159°
2026-05-07 02:09 60.17639 11.10405 684 ft 9 kts 106°
2026-05-07 02:10 60.17621 11.10528 679 ft 9 kts 106°
2026-05-07 02:10 60.17604 11.10651 679 ft 9 kts 106°
2026-05-07 02:10 60.17591 11.10762 679 ft 6 kts 88°
2026-05-07 02:10 60.17625 11.10807 682 ft 6 kts 20°
2026-05-07 02:11 60.17707 11.10854 680 ft 28 kts 16°
2026-05-07 02:11 60.18170 11.11121 682 ft 111 kts 16°
2026-05-07 02:11 60.19167 11.11698 716 ft 184 kts 16°
2026-05-07 02:11 60.20413 11.12402 1589 ft 187 kts 17°
2026-05-07 02:12 60.21520 11.13836 2593 ft 191 kts 49°
2026-05-07 02:12 60.22064 11.16272 3159 ft 196 kts 81°
2026-05-07 02:12 60.22076 11.19051 3432 ft 201 kts 89°
2026-05-07 02:12 60.22129 11.21765 3761 ft 203 kts 84°
2026-05-07 02:13 60.22195 11.23207 3872 ft 210 kts 83°
2026-05-07 02:13 60.22355 11.26047 4052 ft 223 kts 82°
2026-05-07 02:13 60.22558 11.29226 4317 ft 237 kts 82°
2026-05-07 02:13 60.22766 11.32614 4601 ft 249 kts 78°
2026-05-07 02:14 60.23184 11.36060 5051 ft 258 kts 74°
2026-05-07 02:14 60.23671 11.39655 5400 ft 273 kts 75°
2026-05-07 02:14 60.24168 11.43421 5844 ft 286 kts 75°
2026-05-07 02:14 60.24602 11.47410 5968 ft 305 kts 87°
2026-05-07 02:15 60.24219 11.51692 6160 ft 324 kts 117°
2026-05-07 02:15 60.22746 11.55208 6489 ft 338 kts 148°
2026-05-07 02:15 60.20586 11.57103 6954 ft 343 kts 164°
2026-05-07 02:15 60.18283 11.58564 7544 ft 351 kts 163°
2026-05-07 02:16 60.15917 11.59647 8136 ft 351 kts 180°
2026-05-07 02:16 60.13525 11.58875 8819 ft 348 kts 201°
2026-05-07 02:16 60.11240 11.57201 9526 ft 352 kts 202°
2026-05-07 02:16 60.08925 11.55517 10262 ft 356 kts 202°
2026-05-07 02:17 60.06590 11.53835 11043 ft 357 kts 202°
2026-05-07 02:17 60.04249 11.52161 11831 ft 358 kts 203°
2026-05-07 02:17 60.01896 11.50485 12581 ft 361 kts 203°
2026-05-07 02:17 59.99521 11.48802 13321 ft 364 kts 204°
2026-05-07 02:18 59.97124 11.47111 14019 ft 367 kts 204°
2026-05-07 02:18 59.94648 11.45854 14489 ft 377 kts 188°
2026-05-07 02:18 59.91985 11.46416 14997 ft 394 kts 169°
2026-05-07 02:18 59.89455 11.48672 15588 ft 403 kts 155°
2026-05-07 02:19 59.87022 11.51549 16140 ft 410 kts 154°
2026-05-07 02:19 59.84571 11.54494 16736 ft 414 kts 154°
2026-05-07 02:19 59.82095 11.57455 17360 ft 417 kts 155°
2026-05-07 02:19 59.79588 11.60421 17953 ft 421 kts 155°
2026-05-07 02:20 59.77053 11.63386 18505 ft 425 kts 155°
2026-05-07 02:20 59.74491 11.66357 19016 ft 428 kts 155°
2026-05-07 02:20 59.71906 11.69345 19543 ft 431 kts 155°
2026-05-07 02:20 59.69304 11.72347 20089 ft 434 kts 156°
2026-05-07 02:21 59.66722 11.75319 20610 ft 437 kts 156°
2026-05-07 02:21 59.64070 11.78278 21126 ft 436 kts 160°
2026-05-07 02:21 59.61219 11.80363 21567 ft 430 kts 171°
2026-05-07 02:21 59.58320 11.81859 22067 ft 432 kts 172°
2026-05-07 02:22 59.55437 11.83301 22583 ft 434 kts 172°
2026-05-07 02:22 59.52466 11.84836 23121 ft 436 kts 171°
2026-05-07 02:22 59.49529 11.86416 23639 ft 439 kts 171°
2026-05-07 02:22 59.46625 11.88024 24056 ft 441 kts 170°
2026-05-07 02:23 59.43664 11.89684 24482 ft 443 kts 170°
2026-05-07 02:23 59.40691 11.91356 24895 ft 445 kts 171°
2026-05-07 02:23 59.37702 11.93027 25283 ft 447 kts 171°
2026-05-07 02:23 59.34705 11.94694 25678 ft 449 kts 171°
2026-05-07 02:24 59.31661 11.95901 26020 ft 442 kts 184°
2026-05-07 02:24 59.28628 11.95708 26317 ft 435 kts 191°
2026-05-07 02:24 59.25599 11.95200 26647 ft 438 kts 191°
2026-05-07 02:24 59.22552 11.94715 26999 ft 441 kts 190°
2026-05-07 02:25 59.19486 11.94296 27367 ft 443 kts 189°
2026-05-07 02:25 59.16403 11.93935 27719 ft 445 kts 189°
2026-05-07 02:25 59.13304 11.93604 28055 ft 447 kts 189°
2026-05-07 02:25 59.10185 11.93283 28354 ft 450 kts 189°
2026-05-07 02:26 59.07054 11.92959 28651 ft 452 kts 189°
2026-05-07 02:26 59.03912 11.92630 28940 ft 454 kts 189°
2026-05-07 02:26 59.00752 11.92290 29224 ft 455 kts 189°
2026-05-07 02:26 58.97579 11.91935 29474 ft 457 kts 189°
2026-05-07 02:27 58.94398 11.91576 29728 ft 459 kts 189°
2026-05-07 02:27 58.91204 11.91218 29980 ft 460 kts 189°
2026-05-07 02:27 58.88006 11.90863 30279 ft 460 kts 189°
2026-05-07 02:27 58.84815 11.90512 30563 ft 459 kts 189°
2026-05-07 02:28 58.81620 11.90322 30804 ft 462 kts 185°
2026-05-07 02:28 58.78392 11.90678 30914 ft 470 kts 179°
2026-05-07 02:28 58.71883 11.92575 30990 ft 471 kts 177°
2026-05-07 02:29 58.65424 11.94382 31000 ft 468 kts 178°
2026-05-07 02:29 58.59045 11.96334 30987 ft 471 kts 169°
2026-05-07 02:30 58.55979 11.98736 31011 ft 482 kts 156°
2026-05-07 02:30 58.53175 12.02376 31019 ft 493 kts 144°
2026-05-07 02:30 58.48500 12.12156 31020 ft 502 kts 135°
2026-05-07 02:31 58.43943 12.22302 31020 ft 504 kts 136°
2026-05-07 02:31 58.39294 12.32358 31020 ft 506 kts 136°
2026-05-07 02:32 58.34606 12.42346 31024 ft 505 kts 137°
2026-05-07 02:32 58.29924 12.52292 31019 ft 504 kts 137°
2026-05-07 02:33 58.25070 12.61747 31005 ft 495 kts 145°
2026-05-07 02:33 58.19534 12.69260 31007 ft 485 kts 154°
2026-05-07 02:34 58.13774 12.75905 31001 ft 484 kts 154°
2026-05-07 02:34 58.08037 12.82572 31002 ft 484 kts 154°
2026-05-07 02:35 58.02302 12.89266 31019 ft 485 kts 154°
2026-05-07 02:35 57.96564 12.95953 31017 ft 485 kts 154°
2026-05-07 02:36 57.90821 13.02624 30992 ft 485 kts 154°
2026-05-07 02:36 57.85074 13.09271 31010 ft 485 kts 154°
2026-05-07 02:37 57.79326 13.15892 31006 ft 485 kts 154°
2026-05-07 02:37 57.73617 13.22444 31006 ft 484 kts 154°
2026-05-07 02:38 57.67873 13.29010 31004 ft 483 kts 154°
2026-05-07 02:38 57.62135 13.35546 31003 ft 483 kts 154°
2026-05-07 02:39 57.56404 13.42049 31007 ft 482 kts 154°
2026-05-07 02:39 57.50670 13.48530 31005 ft 482 kts 154°
2026-05-07 02:40 57.44943 13.54980 31001 ft 481 kts 154°
2026-05-07 02:40 57.39217 13.61405 31000 ft 481 kts 154°
2026-05-07 02:41 57.33486 13.67812 31019 ft 481 kts 154°
2026-05-07 02:41 57.27758 13.74192 31009 ft 481 kts 154°
2026-05-07 02:42 57.22020 13.80558 30996 ft 481 kts 154°
2026-05-07 02:42 57.16282 13.86904 30999 ft 481 kts 154°
2026-05-07 02:43 57.10548 13.93221 31001 ft 480 kts 154°
2026-05-07 02:43 57.04813 13.99517 31003 ft 480 kts 154°
2026-05-07 02:44 56.99078 14.05789 31004 ft 480 kts 154°
2026-05-07 02:44 56.93343 14.12037 31012 ft 480 kts 154°
2026-05-07 02:45 56.87606 14.18266 31025 ft 480 kts 154°
2026-05-07 02:45 56.81859 14.24483 31017 ft 480 kts 154°
2026-05-07 02:46 56.76099 14.30692 31021 ft 481 kts 154°
2026-05-07 02:46 56.70371 14.36844 31022 ft 481 kts 154°
2026-05-07 02:47 56.64597 14.43024 31020 ft 482 kts 154°
2026-05-07 02:47 56.58811 14.49194 31020 ft 482 kts 154°
2026-05-07 02:48 56.53016 14.55351 31020 ft 483 kts 154°
2026-05-07 02:48 56.47216 14.61493 31019 ft 483 kts 154°
2026-05-07 02:49 56.41414 14.67614 31021 ft 483 kts 154°
2026-05-07 02:49 56.35603 14.73723 31009 ft 483 kts 154°
2026-05-07 02:50 56.29788 14.79814 31005 ft 483 kts 154°
2026-05-07 02:50 56.23970 14.85887 31005 ft 484 kts 153°
2026-05-07 02:51 56.18147 14.91943 30997 ft 484 kts 153°
2026-05-07 02:51 56.12313 14.97990 31000 ft 484 kts 153°
2026-05-07 02:52 56.06474 15.04020 30998 ft 485 kts 153°
2026-05-07 02:52 56.00625 15.10038 31002 ft 485 kts 153°
2026-05-07 02:53 55.94773 15.16040 31005 ft 485 kts 153°
2026-05-07 02:53 55.88908 15.22033 31004 ft 486 kts 153°
2026-05-07 02:54 55.83037 15.28012 31006 ft 486 kts 153°
2026-05-07 02:54 55.77156 15.33979 31002 ft 487 kts 153°
2026-05-07 02:55 55.71269 15.39932 30999 ft 487 kts 153°
2026-05-07 02:55 55.65379 15.45867 30997 ft 487 kts 153°
2026-05-07 02:56 55.60483 15.50785 30996 ft 487 kts 153°
2026-05-07 02:56 55.53603 15.57672 30989 ft 486 kts 154°
2026-05-07 02:57 55.48710 15.62553 31001 ft 486 kts 154°
2026-05-07 02:57 55.42831 15.68398 30995 ft 485 kts 154°
2026-05-07 02:58 55.36962 15.74215 30990 ft 483 kts 154°
2026-05-07 02:58 55.31112 15.79993 30985 ft 482 kts 155°
2026-05-07 02:59 55.25275 15.85738 30979 ft 480 kts 155°
2026-05-07 02:59 55.19461 15.91441 30977 ft 478 kts 155°
2026-05-07 03:00 55.13660 15.97113 30970 ft 477 kts 156°
2026-05-07 03:00 55.07876 16.02750 30972 ft 475 kts 156°
2026-05-07 03:01 55.02111 16.08368 30967 ft 475 kts 156°
2026-05-07 03:01 54.96429 16.14259 30965 ft 476 kts 154°
2026-05-07 03:02 54.90783 16.20252 30965 ft 475 kts 154°
2026-05-07 03:02 54.85169 16.26162 30959 ft 475 kts 155°
2026-05-07 03:03 54.79512 16.32057 30965 ft 474 kts 155°
2026-05-07 03:03 54.73857 16.37914 30953 ft 473 kts 155°
2026-05-07 03:04 54.68205 16.43747 30955 ft 472 kts 155°
2026-05-07 03:04 54.62564 16.49552 30958 ft 471 kts 155°
2026-05-07 03:05 54.56935 16.55327 30948 ft 470 kts 155°
2026-05-07 03:05 54.51314 16.61075 30938 ft 469 kts 155°
2026-05-07 03:06 54.45707 16.66790 30940 ft 468 kts 155°
2026-05-07 03:06 54.40104 16.72481 30937 ft 468 kts 155°
2026-05-07 03:07 54.34504 16.78152 30938 ft 467 kts 156°
2026-05-07 03:07 54.28906 16.83803 30936 ft 467 kts 156°
2026-05-07 03:08 54.23305 16.89438 30938 ft 467 kts 156°
2026-05-07 03:08 54.17708 16.95053 30937 ft 467 kts 156°
2026-05-07 03:09 54.12144 17.00616 30931 ft 466 kts 156°
2026-05-07 03:09 54.06557 17.06186 30925 ft 465 kts 156°
2026-05-07 03:10 54.00975 17.11733 30922 ft 464 kts 156°
2026-05-07 03:10 53.95406 17.17250 30918 ft 463 kts 156°
2026-05-07 03:11 53.89844 17.22741 30909 ft 462 kts 156°
2026-05-07 03:11 53.84289 17.28209 30913 ft 461 kts 156°
2026-05-07 03:12 53.78740 17.33654 30905 ft 461 kts 156°
2026-05-07 03:12 53.73192 17.39081 30907 ft 461 kts 156°
2026-05-07 03:13 53.67642 17.44493 30897 ft 461 kts 156°
2026-05-07 03:13 53.62090 17.49891 30894 ft 461 kts 156°
2026-05-07 03:14 53.56536 17.55275 30899 ft 461 kts 156°
2026-05-07 03:15 53.48197 17.63326 30902 ft 461 kts 155°
2026-05-07 03:15 53.42630 17.68682 30890 ft 461 kts 155°
2026-05-07 03:16 53.37056 17.74027 30884 ft 462 kts 155°
2026-05-07 03:16 53.31511 17.79329 30885 ft 462 kts 155°
2026-05-07 03:17 53.25926 17.84652 30883 ft 462 kts 155°
2026-05-07 03:17 53.20330 17.89970 30887 ft 463 kts 155°
2026-05-07 03:18 53.14724 17.95282 30881 ft 464 kts 155°
2026-05-07 03:18 53.09113 18.00582 30882 ft 464 kts 155°
2026-05-07 03:19 53.03488 18.05878 30885 ft 465 kts 155°
2026-05-07 03:19 52.97852 18.11170 30881 ft 466 kts 155°
2026-05-07 03:20 52.92209 18.16452 30877 ft 466 kts 155°
2026-05-07 03:20 52.86555 18.21728 30869 ft 467 kts 156°
2026-05-07 03:21 52.80895 18.26994 30862 ft 467 kts 156°
2026-05-07 03:21 52.75232 18.32248 30858 ft 467 kts 156°
2026-05-07 03:22 52.69562 18.37491 30854 ft 467 kts 156°
2026-05-07 03:22 52.63896 18.42716 30854 ft 467 kts 156°
2026-05-07 03:23 52.58231 18.47924 30850 ft 466 kts 156°
2026-05-07 03:23 52.52567 18.53115 30862 ft 466 kts 156°
2026-05-07 03:24 52.46907 18.58288 30839 ft 466 kts 156°
2026-05-07 03:24 52.41248 18.63443 30850 ft 465 kts 156°
2026-05-07 03:25 52.35590 18.68583 30839 ft 465 kts 156°
2026-05-07 03:25 52.29936 18.73704 30839 ft 464 kts 156°
2026-05-07 03:26 52.24287 18.78805 30830 ft 464 kts 156°
2026-05-07 03:26 52.18638 18.83892 30820 ft 464 kts 157°
2026-05-07 03:27 52.12992 18.88960 30823 ft 463 kts 157°
2026-05-07 03:27 52.07345 18.94015 30820 ft 463 kts 157°
2026-05-07 03:28 52.01690 18.99062 30811 ft 464 kts 157°
2026-05-07 03:28 51.96033 19.04097 30814 ft 464 kts 157°
2026-05-07 03:29 51.90367 19.09125 30819 ft 465 kts 157°
2026-05-07 03:29 51.84694 19.14144 30817 ft 465 kts 157°
2026-05-07 03:30 51.79012 19.19158 30821 ft 466 kts 157°
2026-05-07 03:30 51.73316 19.24169 30827 ft 466 kts 157°
2026-05-07 03:31 51.67652 19.29137 30827 ft 467 kts 157°
2026-05-07 03:31 51.61939 19.34134 30827 ft 467 kts 157°
2026-05-07 03:32 51.56221 19.39122 30821 ft 468 kts 157°
2026-05-07 03:32 51.50494 19.44103 30812 ft 468 kts 157°
2026-05-07 03:33 51.44763 19.49073 30803 ft 469 kts 157°
2026-05-07 03:33 51.39021 19.54040 30797 ft 469 kts 157°
2026-05-07 03:34 51.33277 19.58994 30791 ft 469 kts 157°
2026-05-07 03:34 51.27522 19.63918 30795 ft 469 kts 157°
2026-05-07 03:35 51.21747 19.68759 30793 ft 469 kts 157°
2026-05-07 03:35 51.15966 19.73580 30797 ft 469 kts 157°
2026-05-07 03:36 51.10184 19.78401 30792 ft 469 kts 157°
2026-05-07 03:36 51.04400 19.83217 30789 ft 469 kts 157°
2026-05-07 03:37 50.98611 19.88025 30804 ft 470 kts 157°
2026-05-07 03:37 50.92811 19.92829 30801 ft 470 kts 157°
2026-05-07 03:38 50.87009 19.97620 30802 ft 471 kts 157°
2026-05-07 03:38 50.81194 20.02408 30802 ft 471 kts 157°
2026-05-07 03:39 50.75372 20.07188 30802 ft 472 kts 157°
2026-05-07 03:39 50.69581 20.11929 30808 ft 473 kts 157°
2026-05-07 03:40 50.63737 20.16701 30810 ft 473 kts 157°
2026-05-07 03:40 50.57886 20.21465 30820 ft 474 kts 157°
2026-05-07 03:41 50.52022 20.26226 30810 ft 475 kts 157°
2026-05-07 03:41 50.46153 20.30978 30815 ft 475 kts 157°
2026-05-07 03:42 50.40270 20.35727 30815 ft 476 kts 157°
2026-05-07 03:42 50.34382 20.40468 30815 ft 476 kts 157°
2026-05-07 03:43 50.28487 20.45201 30819 ft 477 kts 157°
2026-05-07 03:43 50.22575 20.49934 30818 ft 477 kts 157°
2026-05-07 03:44 50.16658 20.54656 30823 ft 478 kts 157°
2026-05-07 03:44 50.10726 20.59379 30823 ft 479 kts 157°
2026-05-07 03:45 50.04781 20.64098 30821 ft 480 kts 157°
2026-05-07 03:45 49.98822 20.68816 30838 ft 481 kts 157°
2026-05-07 03:46 49.93863 20.72732 30837 ft 481 kts 157°
2026-05-07 03:46 49.87891 20.77436 30844 ft 481 kts 157°
2026-05-07 03:47 49.81921 20.82125 30839 ft 481 kts 157°
2026-05-07 03:47 49.75961 20.86795 30847 ft 480 kts 157°
2026-05-07 03:48 49.70012 20.91442 30853 ft 478 kts 158°
2026-05-07 03:48 49.64072 20.96067 30858 ft 478 kts 158°
2026-05-07 03:49 49.58140 21.00675 30867 ft 477 kts 158°
2026-05-07 03:49 49.52205 21.05272 30869 ft 477 kts 158°
2026-05-07 03:50 49.46272 21.09855 30875 ft 477 kts 158°
2026-05-07 03:50 49.40340 21.14425 30879 ft 477 kts 158°
2026-05-07 03:51 49.34407 21.18984 30894 ft 477 kts 158°
2026-05-07 03:51 49.28472 21.23531 30891 ft 477 kts 158°
2026-05-07 03:52 49.22544 21.28062 30908 ft 477 kts 157°
2026-05-07 03:52 49.16600 21.32591 30910 ft 477 kts 157°
2026-05-07 03:53 49.10648 21.37114 30914 ft 479 kts 157°
2026-05-07 03:53 49.04678 21.41640 30928 ft 480 kts 157°
2026-05-07 03:54 48.98693 21.46164 30924 ft 481 kts 157°
2026-05-07 03:54 48.92698 21.50685 30931 ft 481 kts 157°
2026-05-07 03:55 48.86689 21.55204 30939 ft 482 kts 157°
2026-05-07 03:55 48.80666 21.59719 30941 ft 483 kts 157°
2026-05-07 03:56 48.74629 21.64235 30940 ft 484 kts 157°
2026-05-07 03:56 48.68582 21.68746 30944 ft 486 kts 157°
2026-05-07 03:57 48.62508 21.73264 30952 ft 487 kts 157°
2026-05-07 03:57 48.56410 21.77788 30952 ft 489 kts 157°
2026-05-07 03:58 48.50338 21.82282 30953 ft 490 kts 156°
2026-05-07 03:58 48.44215 21.86803 30952 ft 490 kts 157°
2026-05-07 03:59 48.38193 21.91618 30942 ft 493 kts 148°
2026-05-07 03:59 48.32930 21.98251 30957 ft 497 kts 135°
2026-05-07 04:00 48.28428 22.06139 30955 ft 497 kts 132°
2026-05-07 04:00 48.23986 22.14079 30961 ft 497 kts 133°
2026-05-07 04:01 48.19515 22.21972 30963 ft 496 kts 133°
2026-05-07 04:01 48.15027 22.29810 30961 ft 495 kts 133°
2026-05-07 04:02 48.10529 22.37624 30962 ft 495 kts 133°
2026-05-07 04:02 48.06033 22.45413 30956 ft 495 kts 133°
2026-05-07 04:03 48.01531 22.53194 30963 ft 495 kts 133°
2026-05-07 04:03 47.97024 22.60963 30972 ft 495 kts 133°
2026-05-07 04:04 47.92507 22.68726 30967 ft 496 kts 133°
2026-05-07 04:04 47.87980 22.76483 30967 ft 496 kts 133°
2026-05-07 04:05 47.83447 22.84229 30967 ft 496 kts 133°
2026-05-07 04:05 47.78904 22.91970 30967 ft 497 kts 133°
2026-05-07 04:06 47.74352 22.99703 30966 ft 497 kts 133°
2026-05-07 04:06 47.69795 23.07423 30968 ft 497 kts 133°
2026-05-07 04:07 47.65229 23.15134 30970 ft 497 kts 133°
2026-05-07 04:07 47.60656 23.22835 31000 ft 497 kts 133°
2026-05-07 04:08 47.56077 23.30527 30985 ft 498 kts 134°
2026-05-07 04:08 47.51496 23.38198 31004 ft 497 kts 134°
2026-05-07 04:09 47.46912 23.45850 31003 ft 497 kts 134°
2026-05-07 04:09 47.42321 23.53495 30988 ft 497 kts 134°
2026-05-07 04:10 47.37760 23.61068 31011 ft 497 kts 134°
2026-05-07 04:10 47.33167 23.68672 31012 ft 496 kts 134°
2026-05-07 04:11 47.28568 23.76265 31004 ft 496 kts 134°
2026-05-07 04:11 47.23972 23.83832 31017 ft 496 kts 134°
2026-05-07 04:12 47.19370 23.91385 31012 ft 496 kts 134°
2026-05-07 04:12 47.14764 23.98926 31012 ft 495 kts 134°
2026-05-07 04:13 47.10154 24.06451 31014 ft 496 kts 134°
2026-05-07 04:13 47.05539 24.13964 31023 ft 496 kts 134°
2026-05-07 04:14 47.00915 24.21470 31022 ft 496 kts 134°
2026-05-07 04:14 46.96288 24.28961 31021 ft 496 kts 134°
2026-05-07 04:15 46.91650 24.36447 31017 ft 496 kts 134°
2026-05-07 04:15 46.87008 24.43920 31023 ft 497 kts 134°
2026-05-07 04:16 46.82358 24.51384 31028 ft 497 kts 134°
2026-05-07 04:16 46.77698 24.58843 31029 ft 497 kts 134°
2026-05-07 04:17 46.73032 24.66294 31029 ft 498 kts 134°
2026-05-07 04:17 46.68357 24.73738 31034 ft 498 kts 133°
2026-05-07 04:18 46.63673 24.81174 31031 ft 499 kts 134°
2026-05-07 04:18 46.58978 24.88608 31046 ft 499 kts 133°
2026-05-07 04:19 46.54290 24.96009 31044 ft 500 kts 133°
2026-05-07 04:19 46.49577 25.03430 31052 ft 500 kts 133°
2026-05-07 04:20 46.44856 25.10844 31059 ft 500 kts 133°
2026-05-07 04:20 46.40128 25.18249 31058 ft 501 kts 133°
2026-05-07 04:21 46.33019 25.29342 31068 ft 501 kts 133°
2026-05-07 04:21 46.28274 25.36723 31071 ft 501 kts 133°
2026-05-07 04:22 46.23520 25.44096 31067 ft 501 kts 133°
2026-05-07 04:22 46.18793 25.51407 31080 ft 501 kts 133°
2026-05-07 04:23 46.14028 25.58758 31072 ft 502 kts 133°
2026-05-07 04:23 46.09258 25.66098 31076 ft 502 kts 133°
2026-05-07 04:24 46.04477 25.73433 31081 ft 502 kts 133°
2026-05-07 04:24 45.99691 25.80758 31083 ft 502 kts 133°
2026-05-07 04:25 45.94898 25.88070 31088 ft 503 kts 133°
2026-05-07 04:25 45.90098 25.95376 31071 ft 503 kts 133°
2026-05-07 04:26 45.85290 26.02674 31093 ft 503 kts 133°
2026-05-07 04:26 45.80473 26.09965 31096 ft 504 kts 133°
2026-05-07 04:27 45.75648 26.17250 31080 ft 504 kts 133°
2026-05-07 04:27 45.70811 26.24534 31085 ft 505 kts 133°
2026-05-07 04:28 45.65964 26.31812 31087 ft 505 kts 133°
2026-05-07 04:28 45.61109 26.39081 31088 ft 506 kts 133°
2026-05-07 04:29 45.56248 26.46345 31090 ft 506 kts 133°
2026-05-07 04:29 45.51416 26.53547 31096 ft 506 kts 133°
2026-05-07 04:30 45.46589 26.60844 31093 ft 506 kts 132°
2026-05-07 04:30 45.41876 26.68276 31090 ft 506 kts 131°
2026-05-07 04:31 45.37168 26.75722 31092 ft 506 kts 131°
2026-05-07 04:31 45.32439 26.83139 31093 ft 506 kts 131°
2026-05-07 04:32 45.27695 26.90529 31094 ft 506 kts 131°
2026-05-07 04:32 45.23713 26.96711 31092 ft 506 kts 131°
2026-05-07 04:33 45.18188 27.05268 31095 ft 506 kts 131°
2026-05-07 04:33 45.14232 27.11380 31094 ft 506 kts 131°
2026-05-07 04:34 45.09470 27.18722 31092 ft 506 kts 131°
2026-05-07 04:34 45.04700 27.26054 31097 ft 506 kts 131°
2026-05-07 04:35 44.99922 27.33380 31098 ft 507 kts 131°
2026-05-07 04:35 44.95143 27.40690 31097 ft 507 kts 131°
2026-05-07 04:36 44.90356 27.47990 31100 ft 507 kts 131°
2026-05-07 04:36 44.85566 27.55277 31099 ft 507 kts 131°
2026-05-07 04:37 44.80770 27.62554 30954 ft 507 kts 132°
2026-05-07 04:37 44.75938 27.69867 31067 ft 514 kts 132°
2026-05-07 04:38 44.71024 27.77283 31099 ft 522 kts 132°
2026-05-07 04:38 44.66070 27.84740 31100 ft 522 kts 132°
2026-05-07 04:39 44.61106 27.92191 31103 ft 522 kts 132°
2026-05-07 04:39 44.56137 27.99629 31104 ft 522 kts 132°
2026-05-07 04:40 44.51174 28.07040 31103 ft 521 kts 132°
2026-05-07 04:40 44.46206 28.14437 31105 ft 521 kts 132°
2026-05-07 04:41 44.41238 28.21816 31104 ft 521 kts 132°
2026-05-07 04:41 44.36263 28.29186 31107 ft 521 kts 132°
2026-05-07 04:42 44.31286 28.36539 31102 ft 521 kts 132°
2026-05-07 04:42 44.26301 28.43883 31108 ft 521 kts 132°
2026-05-07 04:43 44.21310 28.51218 31106 ft 521 kts 132°
2026-05-07 04:43 44.16311 28.58546 31108 ft 522 kts 132°
2026-05-07 04:44 44.11307 28.65860 31115 ft 522 kts 132°
2026-05-07 04:44 44.06300 28.73159 31120 ft 521 kts 132°
2026-05-07 04:45 44.01289 28.80446 31126 ft 521 kts 132°
2026-05-07 04:45 43.96277 28.87715 31137 ft 521 kts 132°
2026-05-07 04:46 43.91260 28.94973 31140 ft 521 kts 132°
2026-05-07 04:46 43.86243 29.02213 31140 ft 521 kts 132°
2026-05-07 04:47 43.81221 29.09440 31138 ft 520 kts 132°
2026-05-07 04:47 43.76231 29.16603 31142 ft 520 kts 132°
2026-05-07 04:48 43.71204 29.23800 31142 ft 520 kts 132°
2026-05-07 04:48 43.66173 29.30984 31142 ft 520 kts 132°
2026-05-07 04:49 43.61138 29.38157 31144 ft 520 kts 132°
2026-05-07 04:49 43.56094 29.45322 31146 ft 520 kts 132°
2026-05-07 04:50 43.51049 29.52473 31148 ft 521 kts 132°
2026-05-07 04:50 43.45993 29.59618 31148 ft 521 kts 132°
2026-05-07 04:51 43.40933 29.66753 31148 ft 521 kts 132°
2026-05-07 04:51 43.35869 29.73875 31147 ft 521 kts 133°
2026-05-07 04:52 43.30799 29.80986 31149 ft 521 kts 133°
2026-05-07 04:52 43.25728 29.88082 31155 ft 521 kts 133°
2026-05-07 04:53 43.20649 29.95171 31153 ft 521 kts 133°
2026-05-07 04:53 43.15566 30.02246 31158 ft 521 kts 133°
2026-05-07 04:54 43.10481 30.09309 31159 ft 521 kts 133°
2026-05-07 04:54 43.05393 30.16356 31148 ft 521 kts 133°
2026-05-07 04:55 43.00301 30.23392 31149 ft 521 kts 133°
2026-05-07 04:55 42.95203 30.30419 31152 ft 520 kts 133°
2026-05-07 04:56 42.90105 30.37429 31150 ft 520 kts 133°
2026-05-07 04:56 42.85005 30.44425 31149 ft 520 kts 133°
2026-05-07 04:57 42.79902 30.51409 31149 ft 520 kts 133°
2026-05-07 04:57 42.75330 30.58901 31143 ft 512 kts 116°
2026-05-07 04:58 42.72889 30.67876 31151 ft 502 kts 96°
2026-05-07 04:58 42.72019 30.77183 31153 ft 501 kts 94°
2026-05-07 04:59 42.71142 30.86656 31159 ft 503 kts 94°
2026-05-07 04:59 42.70206 30.96023 31158 ft 504 kts 95°
2026-05-07 05:00 42.69228 31.05454 31154 ft 503 kts 95°
2026-05-07 05:00 42.68242 31.14860 31151 ft 502 kts 95°
2026-05-07 05:01 42.67255 31.24236 31149 ft 500 kts 96°
2026-05-07 05:01 42.66265 31.33578 31149 ft 499 kts 96°
2026-05-07 05:02 42.65272 31.42883 31147 ft 497 kts 96°
2026-05-07 05:02 42.64274 31.52158 31155 ft 496 kts 96°
2026-05-07 05:03 42.63269 31.61416 31157 ft 495 kts 96°
2026-05-07 05:03 42.62260 31.70651 31151 ft 494 kts 96°
2026-05-07 05:04 42.61244 31.79872 31150 ft 494 kts 96°
2026-05-07 05:04 42.60223 31.89082 31150 ft 493 kts 96°
2026-05-07 05:05 42.59196 31.98281 31151 ft 493 kts 96°
2026-05-07 05:05 42.58098 32.07458 31151 ft 493 kts 97°
2026-05-07 05:06 42.57014 32.16634 31153 ft 492 kts 96°
2026-05-07 05:06 42.55984 32.25808 31155 ft 492 kts 96°
2026-05-07 05:07 42.54947 32.34922 31152 ft 492 kts 96°
2026-05-07 05:07 42.53884 32.44090 31157 ft 492 kts 96°
2026-05-07 05:08 42.52809 32.53255 31158 ft 492 kts 96°
2026-05-07 05:08 42.51727 32.62421 31156 ft 492 kts 95°
2026-05-07 05:09 42.50638 32.71588 31157 ft 493 kts 95°
2026-05-07 05:09 42.49541 32.80754 31159 ft 493 kts 95°
2026-05-07 05:10 42.48437 32.89926 31156 ft 493 kts 95°
2026-05-07 05:10 42.47324 32.99097 31159 ft 493 kts 95°
2026-05-07 05:11 42.46206 33.08266 31154 ft 493 kts 95°
2026-05-07 05:11 42.45081 33.17433 31153 ft 493 kts 95°
2026-05-07 05:12 42.43962 33.26589 31154 ft 493 kts 95°
2026-05-07 05:12 42.42838 33.35738 31156 ft 492 kts 95°
2026-05-07 05:13 42.41703 33.44877 31158 ft 492 kts 95°
2026-05-07 05:13 42.40546 33.53994 31158 ft 491 kts 95°
2026-05-07 05:14 42.39381 33.63098 31152 ft 491 kts 95°
2026-05-07 05:14 42.38215 33.72186 31166 ft 490 kts 95°
2026-05-07 05:15 42.37052 33.81203 31154 ft 490 kts 96°
2026-05-07 05:15 42.35874 33.90272 31154 ft 489 kts 96°
2026-05-07 05:16 42.34691 33.99332 31155 ft 489 kts 96°
2026-05-07 05:16 42.33506 34.08381 31168 ft 489 kts 96°
2026-05-07 05:17 42.32315 34.17415 31161 ft 488 kts 96°
2026-05-07 05:17 42.31118 34.26441 31167 ft 488 kts 96°
2026-05-07 05:18 42.29915 34.35461 31160 ft 488 kts 96°
2026-05-07 05:18 42.28700 34.44465 31157 ft 487 kts 97°
2026-05-07 05:19 42.27465 34.53458 31159 ft 487 kts 97°
2026-05-07 05:19 42.26224 34.62446 31159 ft 487 kts 97°
2026-05-07 05:20 42.25191 34.69905 31162 ft 487 kts 97°
2026-05-07 05:20 42.23942 34.78887 31163 ft 487 kts 98°
2026-05-07 05:21 42.22060 34.92350 31166 ft 487 kts 98°
2026-05-07 05:22 42.20797 35.01358 31496 ft 489 kts 98°
2026-05-07 05:22 42.20163 35.05854 31862 ft 487 kts 98°
2026-05-07 05:22 42.19528 35.10336 32237 ft 485 kts 98°
2026-05-07 05:22 42.18895 35.14796 32580 ft 484 kts 98°
2026-05-07 05:23 42.18263 35.19244 32878 ft 483 kts 98°
2026-05-07 05:23 42.17628 35.23692 33094 ft 484 kts 98°
2026-05-07 05:23 42.16991 35.28154 33138 ft 485 kts 98°
2026-05-07 05:24 42.15710 35.37072 33165 ft 483 kts 98°
2026-05-07 05:24 42.14439 35.45869 33172 ft 480 kts 98°
2026-05-07 05:25 42.13164 35.54678 33172 ft 478 kts 98°
2026-05-07 05:25 42.11888 35.63464 33177 ft 478 kts 98°
2026-05-07 05:26 42.10604 35.72250 33180 ft 478 kts 98°
2026-05-07 05:26 42.09312 35.81040 33182 ft 479 kts 98°
2026-05-07 05:27 42.08011 35.89842 33183 ft 480 kts 98°
2026-05-07 05:27 42.06703 35.98644 33181 ft 480 kts 98°
2026-05-07 05:28 42.05387 36.07446 33182 ft 480 kts 99°
2026-05-07 05:28 42.04065 36.16240 33182 ft 479 kts 99°
2026-05-07 05:29 42.02739 36.25020 33187 ft 479 kts 99°
2026-05-07 05:29 42.01406 36.33792 33185 ft 478 kts 99°
2026-05-07 05:30 42.00067 36.42555 33186 ft 478 kts 99°
2026-05-07 05:30 41.98724 36.51297 33186 ft 478 kts 99°
2026-05-07 05:31 41.97374 36.60039 33188 ft 478 kts 99°
2026-05-07 05:31 41.96018 36.68777 33191 ft 478 kts 99°
2026-05-07 05:32 41.94656 36.77509 33194 ft 478 kts 99°
2026-05-07 05:32 41.93285 36.86248 33192 ft 478 kts 99°
2026-05-07 05:33 41.91909 36.94982 33193 ft 478 kts 100°
2026-05-07 05:33 41.90599 37.03678 33189 ft 478 kts 96°
2026-05-07 05:34 41.90193 37.12593 33206 ft 475 kts 89°
2026-05-07 05:34 41.90115 37.21407 33197 ft 476 kts 89°
2026-05-07 05:35 41.90012 37.30286 33197 ft 476 kts 89°
2026-05-07 05:35 41.89878 37.39182 33194 ft 477 kts 89°
2026-05-07 05:36 41.89726 37.48078 33197 ft 477 kts 90°
2026-05-07 05:36 41.89567 37.56986 33198 ft 477 kts 90°
2026-05-07 05:37 41.89401 37.65896 33200 ft 478 kts 90°
2026-05-07 05:37 41.89230 37.74811 33200 ft 478 kts 90°
2026-05-07 05:38 41.89051 37.83724 33203 ft 478 kts 90°
2026-05-07 05:38 41.88866 37.92641 33205 ft 478 kts 90°
2026-05-07 05:39 41.88674 38.01558 33205 ft 478 kts 90°
2026-05-07 05:39 41.88474 38.10479 33207 ft 478 kts 90°
2026-05-07 05:40 41.88268 38.19408 33208 ft 479 kts 90°
2026-05-07 05:40 41.88055 38.28334 33204 ft 479 kts 90°
2026-05-07 05:41 41.87834 38.37273 33202 ft 479 kts 90°
2026-05-07 05:41 41.87607 38.46215 33206 ft 480 kts 91°
2026-05-07 05:42 41.87372 38.55161 33206 ft 480 kts 91°
2026-05-07 05:42 41.87130 38.64119 33209 ft 481 kts 91°
2026-05-07 05:43 41.86881 38.73082 33209 ft 481 kts 91°
2026-05-07 05:43 41.86625 38.82054 33213 ft 481 kts 91°
2026-05-07 05:44 41.86362 38.91032 33213 ft 482 kts 91°
2026-05-07 05:44 41.86091 39.00013 33207 ft 482 kts 91°
2026-05-07 05:45 41.85814 39.08996 33209 ft 482 kts 91°
2026-05-07 05:45 41.85531 39.17926 33209 ft 482 kts 91°
2026-05-07 05:46 41.85240 39.26914 33207 ft 482 kts 91°
2026-05-07 05:46 41.84941 39.35906 33212 ft 483 kts 91°
2026-05-07 05:47 41.84636 39.44902 33210 ft 483 kts 92°
2026-05-07 05:47 41.84324 39.53898 33213 ft 483 kts 92°
2026-05-07 05:48 41.84016 39.62898 33200 ft 483 kts 92°
2026-05-07 05:48 41.83705 39.71899 33205 ft 483 kts 92°
2026-05-07 05:49 41.83385 39.80907 33215 ft 484 kts 92°
2026-05-07 05:49 41.83058 39.89922 33213 ft 484 kts 92°
2026-05-07 05:50 41.82723 39.98940 33212 ft 485 kts 92°
2026-05-07 05:50 41.82383 40.07966 33211 ft 485 kts 92°
2026-05-07 05:51 41.82028 40.16993 33199 ft 485 kts 92°
2026-05-07 05:51 41.81646 40.26032 33214 ft 486 kts 93°
2026-05-07 05:52 41.81256 40.35073 33205 ft 486 kts 93°
2026-05-07 05:52 41.80862 40.44122 33200 ft 487 kts 93°
2026-05-07 05:53 41.80462 40.53182 33207 ft 487 kts 93°
2026-05-07 05:53 41.80187 40.62256 33202 ft 487 kts 87°
2026-05-07 05:54 41.81028 40.71257 33212 ft 488 kts 77°
2026-05-07 05:54 41.82824 40.80021 33204 ft 488 kts 73°
2026-05-07 05:55 41.84709 40.88762 33221 ft 488 kts 73°
2026-05-07 05:55 41.86563 40.97530 33209 ft 489 kts 74°
2026-05-07 05:56 41.88389 41.06329 33208 ft 490 kts 74°
2026-05-07 05:56 41.90191 41.15084 33207 ft 490 kts 74°
2026-05-07 05:57 41.91999 41.23907 33215 ft 490 kts 75°
2026-05-07 05:57 41.93802 41.32736 33214 ft 491 kts 75°
2026-05-07 05:58 41.95602 41.41585 33202 ft 491 kts 75°
2026-05-07 05:58 41.97395 41.50435 33195 ft 491 kts 75°
2026-05-07 05:59 41.99182 41.59297 33196 ft 491 kts 75°
2026-05-07 05:59 42.00962 41.68165 33210 ft 492 kts 75°
2026-05-07 06:00 42.02738 41.77050 33205 ft 492 kts 75°
2026-05-07 06:00 42.04508 41.85945 33205 ft 493 kts 75°
2026-05-07 06:01 42.06272 41.94852 33189 ft 493 kts 75°
2026-05-07 06:01 42.08033 42.03777 33199 ft 494 kts 75°
2026-05-07 06:02 42.09787 42.12714 33199 ft 494 kts 75°
2026-05-07 06:02 42.11537 42.21667 33187 ft 495 kts 75°
2026-05-07 06:03 42.13282 42.30632 33186 ft 495 kts 76°
2026-05-07 06:03 42.15020 42.39605 33189 ft 495 kts 76°
2026-05-07 06:04 42.16752 42.48590 33182 ft 495 kts 76°
2026-05-07 06:04 42.18467 42.57526 33185 ft 496 kts 76°
2026-05-07 06:05 42.20187 42.66529 33191 ft 496 kts 76°
2026-05-07 06:05 42.21900 42.75541 33202 ft 497 kts 76°
2026-05-07 06:06 42.23611 42.84582 33191 ft 497 kts 76°
2026-05-07 06:06 42.25317 42.93632 33196 ft 498 kts 76°
2026-05-07 06:07 42.26838 43.02722 33174 ft 496 kts 86°
2026-05-07 06:07 42.26825 43.07358 33201 ft 494 kts 97°
2026-05-07 06:07 42.26202 43.11904 33197 ft 492 kts 107°
2026-05-07 06:08 42.23596 43.20390 33205 ft 490 kts 116°
2026-05-07 06:08 42.20771 43.28800 33200 ft 493 kts 116°
2026-05-07 06:09 42.17998 43.37285 33212 ft 496 kts 115°
2026-05-07 06:09 42.15707 43.44376 33212 ft 498 kts 115°
2026-05-07 06:10 42.12932 43.52940 33196 ft 499 kts 116°
2026-05-07 06:10 42.10146 43.61491 33190 ft 498 kts 116°
2026-05-07 06:11 42.06831 43.69606 33189 ft 493 kts 127°
2026-05-07 06:11 42.02967 43.77211 33189 ft 492 kts 127°
2026-05-07 06:12 41.99102 43.84806 33183 ft 492 kts 127°
2026-05-07 06:12 41.95260 43.92424 33186 ft 492 kts 127°
2026-05-07 06:13 41.91422 44.00050 33178 ft 493 kts 127°
2026-05-07 06:13 41.87577 44.07678 33177 ft 494 kts 128°
2026-05-07 06:14 41.83722 44.15302 33182 ft 494 kts 128°
2026-05-07 06:14 41.79855 44.22929 33170 ft 494 kts 128°
2026-05-07 06:15 41.75985 44.30541 33184 ft 494 kts 128°
2026-05-07 06:15 41.72107 44.38148 33182 ft 496 kts 128°
2026-05-07 06:16 41.68209 44.45776 33178 ft 497 kts 129°
2026-05-07 06:16 41.64303 44.53404 33177 ft 497 kts 129°
2026-05-07 06:17 41.60389 44.61027 33176 ft 498 kts 129°
2026-05-07 06:17 41.56488 44.68604 33179 ft 498 kts 129°
2026-05-07 06:18 41.52559 44.76219 33178 ft 498 kts 129°
2026-05-07 06:18 41.48617 44.83840 33172 ft 499 kts 129°
2026-05-07 06:19 41.44670 44.91451 33186 ft 499 kts 130°
2026-05-07 06:19 41.40717 44.99059 33173 ft 499 kts 130°
2026-05-07 06:20 41.36875 45.06779 33172 ft 503 kts 124°
2026-05-07 06:20 41.33973 45.15329 33164 ft 512 kts 114°
2026-05-07 06:21 41.31730 45.24333 33164 ft 513 kts 113°
2026-05-07 06:21 41.29473 45.33348 33171 ft 514 kts 114°
2026-05-07 06:22 41.27160 45.42354 33166 ft 515 kts 114°
2026-05-07 06:22 41.23654 45.55864 33168 ft 516 kts 114°
2026-05-07 06:23 41.21312 45.64869 33164 ft 516 kts 114°
2026-05-07 06:23 41.18948 45.73849 33163 ft 515 kts 114°
2026-05-07 06:24 41.16566 45.82807 33161 ft 514 kts 115°
2026-05-07 06:24 41.14185 45.91742 33171 ft 513 kts 115°
2026-05-07 06:25 41.11802 46.00663 33171 ft 513 kts 115°
2026-05-07 06:25 41.09415 46.09573 33176 ft 513 kts 115°
2026-05-07 06:26 41.07020 46.18479 33178 ft 513 kts 115°
2026-05-07 06:26 41.04615 46.27396 33179 ft 514 kts 115°
2026-05-07 06:27 41.02215 46.36328 33170 ft 515 kts 115°
2026-05-07 06:27 40.99831 46.45287 33173 ft 516 kts 115°
2026-05-07 06:28 40.97437 46.54247 33167 ft 516 kts 115°
2026-05-07 06:28 40.95035 46.63191 33174 ft 516 kts 115°
2026-05-07 06:29 40.92625 46.72128 33173 ft 516 kts 115°
2026-05-07 06:29 40.90209 46.81061 33175 ft 516 kts 115°
2026-05-07 06:30 40.87774 46.89974 33167 ft 515 kts 115°
2026-05-07 06:30 40.85324 46.98872 33163 ft 516 kts 115°
2026-05-07 06:31 40.82870 47.07772 33172 ft 516 kts 115°
2026-05-07 06:31 40.80408 47.16672 33169 ft 516 kts 116°
2026-05-07 06:32 40.77953 47.25512 33156 ft 517 kts 116°
2026-05-07 06:32 40.75475 47.34415 33154 ft 517 kts 116°
2026-05-07 06:33 40.72987 47.43314 33147 ft 517 kts 116°
2026-05-07 06:33 40.70479 47.52201 33152 ft 517 kts 116°
2026-05-07 06:34 40.67963 47.61090 33150 ft 518 kts 116°
2026-05-07 06:34 40.65443 47.69974 33148 ft 518 kts 116°
2026-05-07 06:35 40.62918 47.78849 33143 ft 518 kts 116°
2026-05-07 06:35 40.60390 47.87719 33144 ft 518 kts 115°
2026-05-07 06:36 40.58709 47.97021 33154 ft 528 kts 102°
2026-05-07 06:36 40.58490 48.06726 33141 ft 534 kts 90°
2026-05-07 06:37 40.58902 48.16472 33151 ft 534 kts 91°
2026-05-07 06:37 40.59176 48.26240 33132 ft 534 kts 91°
2026-05-07 06:38 40.59420 48.35997 33136 ft 534 kts 91°
2026-05-07 06:38 40.59665 48.45762 33124 ft 534 kts 91°
2026-05-07 06:39 40.59909 48.55534 33111 ft 534 kts 91°
2026-05-07 06:39 40.60147 48.65294 33114 ft 534 kts 91°
2026-05-07 06:40 40.60373 48.75051 33130 ft 534 kts 92°
2026-05-07 06:40 40.60590 48.84813 33120 ft 534 kts 92°
2026-05-07 06:41 40.60801 48.94584 33110 ft 534 kts 92°
2026-05-07 06:41 40.61003 49.04348 33113 ft 533 kts 92°
2026-05-07 06:42 40.61199 49.14110 33112 ft 534 kts 92°
2026-05-07 06:42 40.61436 49.23878 33111 ft 535 kts 90°
2026-05-07 06:43 40.62010 49.33657 33108 ft 536 kts 88°
2026-05-07 06:43 40.62656 49.43436 33108 ft 536 kts 88°
2026-05-07 06:44 40.63240 49.53224 33104 ft 536 kts 89°
2026-05-07 06:44 40.63779 49.63017 33105 ft 536 kts 89°
2026-05-07 06:45 40.64301 49.72748 33114 ft 537 kts 89°
2026-05-07 06:45 40.64822 49.82552 33112 ft 537 kts 89°
2026-05-07 06:46 40.65342 49.92429 33103 ft 537 kts 89°
2026-05-07 06:46 40.65847 50.02174 33099 ft 537 kts 89°
2026-05-07 06:47 40.66348 50.11996 33101 ft 538 kts 89°
2026-05-07 06:47 40.66839 50.21822 33104 ft 538 kts 89°
2026-05-07 06:48 40.67323 50.31648 33110 ft 538 kts 89°
2026-05-07 06:48 40.67800 50.41489 33115 ft 538 kts 89°
2026-05-07 06:49 40.68268 50.51335 33119 ft 539 kts 89°
2026-05-07 06:49 40.68728 50.61185 33122 ft 539 kts 89°
2026-05-07 06:50 40.69181 50.71043 33123 ft 539 kts 90°
2026-05-07 06:50 40.69625 50.80905 33129 ft 539 kts 90°
2026-05-07 06:51 40.70061 50.90761 33132 ft 539 kts 90°
2026-05-07 06:51 40.70489 51.00623 33137 ft 539 kts 90°
2026-05-07 06:52 40.70908 51.10484 33139 ft 539 kts 90°
2026-05-07 06:52 40.71319 51.20347 33133 ft 539 kts 90°
2026-05-07 06:53 40.71721 51.30206 33140 ft 539 kts 90°
2026-05-07 06:53 40.72117 51.40080 33137 ft 539 kts 90°
2026-05-07 06:54 40.72591 51.49952 33140 ft 541 kts 86°
2026-05-07 06:54 40.73997 51.59719 33146 ft 543 kts 79°
2026-05-07 06:55 40.75679 51.69441 33137 ft 544 kts 79°
2026-05-07 06:55 40.77048 51.77535 33137 ft 544 kts 80°
2026-05-07 06:56 40.78645 51.87290 33137 ft 544 kts 80°
2026-05-07 06:56 40.80219 51.97055 33134 ft 544 kts 80°
2026-05-07 06:57 40.81788 52.06821 33130 ft 544 kts 80°
2026-05-07 06:57 40.83352 52.16594 33137 ft 544 kts 81°
2026-05-07 06:58 40.84908 52.26372 33134 ft 544 kts 81°
2026-05-07 06:58 40.86456 52.36153 33129 ft 544 kts 81°
2026-05-07 06:59 40.87994 52.45930 33128 ft 544 kts 81°
2026-05-07 06:59 40.89526 52.55717 33129 ft 543 kts 81°
2026-05-07 07:00 40.90638 52.65552 33123 ft 539 kts 90°
2026-05-07 07:00 40.91014 52.75424 33131 ft 538 kts 91°
2026-05-07 07:01 40.91377 52.85311 33120 ft 539 kts 91°
2026-05-07 07:01 40.91791 52.95216 33130 ft 540 kts 90°
2026-05-07 07:02 40.92212 53.05124 33126 ft 540 kts 91°
2026-05-07 07:02 40.92616 53.15050 33118 ft 541 kts 91°
2026-05-07 07:03 40.92994 53.24983 33124 ft 541 kts 91°
2026-05-07 07:03 40.93360 53.34916 33125 ft 541 kts 91°
2026-05-07 07:04 40.93720 53.44853 33117 ft 541 kts 91°
2026-05-07 07:04 40.94073 53.54788 33119 ft 541 kts 91°
2026-05-07 07:05 40.94418 53.64718 33115 ft 540 kts 91°
2026-05-07 07:05 40.94754 53.74642 33109 ft 540 kts 91°
2026-05-07 07:06 40.95081 53.84556 33110 ft 540 kts 92°
2026-05-07 07:06 40.95399 53.94476 33104 ft 540 kts 92°
2026-05-07 07:07 40.95709 54.04393 33111 ft 540 kts 92°
2026-05-07 07:07 40.96010 54.14305 33116 ft 540 kts 92°
2026-05-07 07:08 40.96304 54.24234 33110 ft 540 kts 92°
2026-05-07 07:08 40.96588 54.34163 33102 ft 540 kts 92°
2026-05-07 07:09 40.96862 54.44023 33102 ft 540 kts 92°
2026-05-07 07:09 40.97130 54.53955 33101 ft 540 kts 92°
2026-05-07 07:10 40.97389 54.63887 33098 ft 540 kts 92°
2026-05-07 07:10 40.97640 54.73815 33088 ft 540 kts 92°
2026-05-07 07:11 40.97883 54.83750 33095 ft 540 kts 93°
2026-05-07 07:11 40.98116 54.93688 33090 ft 541 kts 93°
2026-05-07 07:12 40.98334 55.03639 33083 ft 541 kts 93°
2026-05-07 07:12 40.98543 55.13590 33088 ft 541 kts 93°
2026-05-07 07:13 40.98746 55.23556 33082 ft 542 kts 93°
2026-05-07 07:13 40.98941 55.33535 33075 ft 542 kts 93°
2026-05-07 07:14 40.99126 55.43517 33068 ft 543 kts 93°
2026-05-07 07:14 40.99304 55.53504 33070 ft 543 kts 94°
2026-05-07 07:15 40.99473 55.63493 33064 ft 543 kts 94°
2026-05-07 07:15 40.99634 55.73481 33066 ft 543 kts 94°
2026-05-07 07:16 40.99790 55.83471 33062 ft 543 kts 94°
2026-05-07 07:16 40.99949 55.93460 33062 ft 543 kts 94°
2026-05-07 07:17 41.00103 56.03450 33057 ft 543 kts 94°
2026-05-07 07:17 41.00246 56.13440 33058 ft 543 kts 94°
2026-05-07 07:18 41.00379 56.23434 33051 ft 543 kts 94°
2026-05-07 07:18 41.00504 56.33435 33049 ft 543 kts 94°
2026-05-07 07:19 41.00622 56.43432 33057 ft 543 kts 94°
2026-05-07 07:19 41.00939 56.53431 33051 ft 547 kts 86°
2026-05-07 07:20 41.02119 56.63395 33053 ft 548 kts 84°
2026-05-07 07:20 41.03382 56.73343 33050 ft 548 kts 84°
2026-05-07 07:21 41.04595 56.83300 33037 ft 547 kts 84°
2026-05-07 07:21 41.05763 56.93254 33031 ft 546 kts 84°
2026-05-07 07:22 41.06915 57.03199 33021 ft 545 kts 84°
2026-05-07 07:22 41.08059 57.13128 33031 ft 545 kts 84°
2026-05-07 07:23 41.09196 57.23045 33024 ft 544 kts 84°
2026-05-07 07:23 41.10316 57.32885 33028 ft 543 kts 85°
2026-05-07 07:24 41.11434 57.42792 33015 ft 543 kts 85°
2026-05-07 07:24 41.12542 57.52684 33021 ft 542 kts 85°
2026-05-07 07:25 41.14185 57.67504 33007 ft 541 kts 85°
2026-05-07 07:26 41.15268 57.77379 33008 ft 541 kts 85°
2026-05-07 07:26 41.16342 57.87247 33004 ft 540 kts 85°
2026-05-07 07:27 41.17406 57.97105 32998 ft 539 kts 85°
2026-05-07 07:27 41.18462 58.06951 32998 ft 539 kts 85°
2026-05-07 07:28 41.19506 58.16798 32996 ft 538 kts 85°
2026-05-07 07:28 41.20537 58.26628 32986 ft 537 kts 85°
2026-05-07 07:29 41.21558 58.36448 32980 ft 536 kts 85°
2026-05-07 07:29 41.22570 58.46254 32982 ft 536 kts 85°
2026-05-07 07:30 41.23574 58.56058 32972 ft 535 kts 85°
2026-05-07 07:30 41.24566 58.65836 32970 ft 534 kts 85°
2026-05-07 07:31 41.25548 58.75604 32967 ft 533 kts 85°
2026-05-07 07:31 41.26521 58.85359 32955 ft 532 kts 85°
2026-05-07 07:32 41.27485 58.95108 32951 ft 531 kts 85°
2026-05-07 07:32 41.28438 59.04839 32947 ft 531 kts 85°
2026-05-07 07:33 41.29383 59.14575 32940 ft 530 kts 85°
2026-05-07 07:33 41.30319 59.24298 32936 ft 530 kts 85°
2026-05-07 07:34 41.31245 59.34015 32934 ft 530 kts 85°
2026-05-07 07:34 41.32163 59.43734 32928 ft 529 kts 85°
2026-05-07 07:35 41.33067 59.53384 32924 ft 529 kts 86°
2026-05-07 07:35 41.33966 59.63098 32922 ft 528 kts 86°
2026-05-07 07:36 41.34148 59.72802 32913 ft 522 kts 97°
2026-05-07 07:36 41.33623 59.82429 32909 ft 522 kts 98°
2026-05-07 07:37 41.33129 59.92062 32906 ft 522 kts 97°
2026-05-07 07:37 41.32681 60.01696 32897 ft 522 kts 97°
2026-05-07 07:38 41.32224 60.11331 32895 ft 522 kts 97°
2026-05-07 07:38 41.31765 60.20959 32893 ft 521 kts 97°
2026-05-07 07:39 41.31299 60.30579 32884 ft 521 kts 97°
2026-05-07 07:39 41.30829 60.40194 32885 ft 521 kts 96°
2026-05-07 07:40 41.30972 60.49835 32887 ft 523 kts 88°
2026-05-07 07:40 41.31448 60.57843 32887 ft 523 kts 88°
2026-05-07 07:41 41.32013 60.67483 32876 ft 522 kts 88°
2026-05-07 07:41 41.32527 60.77114 32879 ft 522 kts 88°
2026-05-07 07:42 41.33014 60.86748 32877 ft 522 kts 88°
2026-05-07 07:42 41.33493 60.96381 32868 ft 522 kts 88°
2026-05-07 07:43 41.33968 61.06011 32868 ft 521 kts 88°
2026-05-07 07:43 41.34435 61.15635 32862 ft 521 kts 88°
2026-05-07 07:44 41.34894 61.25257 32863 ft 521 kts 88°
2026-05-07 07:44 41.35344 61.34877 32860 ft 520 kts 88°
2026-05-07 07:45 41.35784 61.44421 32857 ft 520 kts 89°
2026-05-07 07:45 41.36214 61.54017 32855 ft 519 kts 89°
2026-05-07 07:46 41.36634 61.63603 32852 ft 518 kts 89°
2026-05-07 07:46 41.37047 61.73174 32857 ft 517 kts 89°
2026-05-07 07:47 41.37451 61.82729 32855 ft 517 kts 89°
2026-05-07 07:47 41.37848 61.92274 32848 ft 516 kts 89°
2026-05-07 07:48 41.38235 62.01798 32843 ft 515 kts 89°
2026-05-07 07:48 41.38614 62.11315 32849 ft 514 kts 89°
2026-05-07 07:49 41.38985 62.20816 32843 ft 514 kts 89°
2026-05-07 07:49 41.39347 62.30309 32840 ft 513 kts 89°
2026-05-07 07:50 41.39702 62.39796 32839 ft 512 kts 89°
2026-05-07 07:50 41.40049 62.49270 32840 ft 512 kts 89°
2026-05-07 07:51 41.40409 62.58742 32839 ft 512 kts 89°
2026-05-07 07:51 41.40787 62.68204 32840 ft 512 kts 89°
2026-05-07 07:52 41.41158 62.77663 32841 ft 511 kts 89°
2026-05-07 07:52 41.41516 62.87126 32840 ft 511 kts 89°
2026-05-07 07:53 41.41865 62.96584 32836 ft 511 kts 89°
2026-05-07 07:53 41.42206 63.06038 32842 ft 511 kts 89°
2026-05-07 07:54 41.42536 63.15422 32843 ft 510 kts 89°
2026-05-07 07:54 41.42861 63.24863 32845 ft 510 kts 89°
2026-05-07 07:55 41.43178 63.34297 32854 ft 509 kts 89°
2026-05-07 07:55 41.43487 63.43722 32859 ft 509 kts 89°
2026-05-07 07:56 41.43788 63.53130 32860 ft 508 kts 89°
2026-05-07 07:56 41.44083 63.62530 32873 ft 507 kts 89°
2026-05-07 07:57 41.44363 63.71924 32879 ft 507 kts 89°
2026-05-07 07:57 41.44619 63.81306 32883 ft 506 kts 89°
2026-05-07 07:58 41.44867 63.90683 32886 ft 506 kts 89°
2026-05-07 07:58 41.45109 64.00049 32893 ft 506 kts 89°
2026-05-07 07:59 41.45345 64.09418 32894 ft 506 kts 89°
2026-05-07 07:59 41.45573 64.18788 32897 ft 506 kts 89°
2026-05-07 08:00 41.45794 64.28170 32908 ft 507 kts 89°
2026-05-07 08:00 41.46008 64.37571 32902 ft 508 kts 89°
2026-05-07 08:01 41.46214 64.46995 32911 ft 509 kts 89°
2026-05-07 08:01 41.46414 64.56437 32908 ft 510 kts 90°
2026-05-07 08:02 41.46605 64.65911 32910 ft 512 kts 90°
2026-05-07 08:02 41.46791 64.75413 32904 ft 513 kts 90°
2026-05-07 08:03 41.46968 64.84924 32913 ft 513 kts 90°
2026-05-07 08:03 41.47138 64.94442 32910 ft 513 kts 90°
2026-05-07 08:04 41.47298 65.03887 32908 ft 513 kts 90°
2026-05-07 08:04 41.47452 65.13378 32907 ft 512 kts 90°
2026-05-07 08:05 41.47597 65.22859 32909 ft 511 kts 90°
2026-05-07 08:05 41.47735 65.32333 32907 ft 511 kts 90°
2026-05-07 08:06 41.47865 65.41810 32912 ft 511 kts 90°
2026-05-07 08:06 41.47987 65.51298 32917 ft 512 kts 90°
2026-05-07 08:07 41.48102 65.60813 32915 ft 514 kts 90°
2026-05-07 08:07 41.48209 65.70358 32923 ft 516 kts 90°
2026-05-07 08:08 41.48310 65.79943 32917 ft 518 kts 90°
2026-05-07 08:08 41.48351 65.89556 32919 ft 519 kts 90°
2026-05-07 08:09 41.48359 65.99183 32919 ft 519 kts 90°
2026-05-07 08:09 41.48365 66.08757 32917 ft 520 kts 90°
2026-05-07 08:10 41.48370 66.18394 32921 ft 520 kts 90°
2026-05-07 08:10 41.48369 66.28019 32920 ft 519 kts 90°
2026-05-07 08:11 41.48358 66.37638 32922 ft 518 kts 90°
2026-05-07 08:11 41.48340 66.47255 32922 ft 518 kts 90°
2026-05-07 08:12 41.48313 66.56859 32923 ft 518 kts 91°
2026-05-07 08:12 41.47625 66.66395 32915 ft 516 kts 102°
2026-05-07 08:13 41.46201 66.75769 32919 ft 516 kts 102°
2026-05-07 08:13 41.44763 66.85149 32924 ft 517 kts 102°
2026-05-07 08:14 41.43359 66.94545 32919 ft 517 kts 102°
2026-05-07 08:14 41.41967 67.03942 32927 ft 517 kts 102°
2026-05-07 08:15 41.40569 67.13338 32924 ft 517 kts 102°
2026-05-07 08:15 41.39161 67.22722 32926 ft 517 kts 102°
2026-05-07 08:16 41.37744 67.32099 32918 ft 516 kts 102°
2026-05-07 08:16 41.36322 67.41459 32929 ft 516 kts 103°
2026-05-07 08:17 41.34893 67.50814 32932 ft 515 kts 103°
2026-05-07 08:17 41.33457 67.60154 32937 ft 515 kts 103°
2026-05-07 08:18 41.32016 67.69483 32940 ft 515 kts 103°
2026-05-07 08:18 41.30567 67.78810 32939 ft 515 kts 103°
2026-05-07 08:19 41.29122 67.88065 32936 ft 515 kts 103°
2026-05-07 08:19 41.27858 67.97429 32942 ft 515 kts 98°
2026-05-07 08:20 41.27051 68.06887 32951 ft 515 kts 97°
2026-05-07 08:20 41.26259 68.16350 32955 ft 515 kts 97°
2026-05-07 08:21 41.25427 68.25808 32953 ft 515 kts 97°
2026-05-07 08:21 41.24572 68.35260 32958 ft 515 kts 97°
2026-05-07 08:22 41.23708 68.44715 32957 ft 515 kts 97°
2026-05-07 08:22 41.22838 68.54159 32958 ft 515 kts 98°
2026-05-07 08:23 41.21963 68.63593 32963 ft 514 kts 98°
2026-05-07 08:23 41.21082 68.73013 32965 ft 514 kts 98°
2026-05-07 08:24 41.20193 68.82428 32962 ft 514 kts 98°
2026-05-07 08:24 41.19314 68.91834 32965 ft 513 kts 96°
2026-05-07 08:25 41.18998 69.01292 32970 ft 513 kts 91°
2026-05-07 08:25 41.18810 69.10752 32971 ft 513 kts 92°
2026-05-07 08:26 41.18338 69.24940 32963 ft 512 kts 96°
2026-05-07 08:26 41.17573 69.34330 32970 ft 512 kts 97°
2026-05-07 08:27 41.16763 69.43654 32969 ft 512 kts 97°
2026-05-07 08:27 41.15966 69.53037 32978 ft 512 kts 96°
2026-05-07 08:28 41.15178 69.62423 32992 ft 512 kts 96°
2026-05-07 08:28 41.14386 69.71797 33011 ft 511 kts 96°
2026-05-07 08:29 41.13584 69.81168 33039 ft 511 kts 97°
2026-05-07 08:29 41.12774 69.90539 33043 ft 511 kts 97°
2026-05-07 08:30 41.11956 69.99900 33065 ft 511 kts 97°
2026-05-07 08:30 41.11133 70.09252 33067 ft 511 kts 97°
2026-05-07 08:31 41.10443 70.17024 33085 ft 511 kts 97°
2026-05-07 08:31 41.09960 70.26409 33088 ft 511 kts 88°
2026-05-07 08:32 41.10718 70.37364 33107 ft 511 kts 83°
2026-05-07 08:32 41.11360 70.45155 33098 ft 512 kts 83°
2026-05-07 08:33 41.12074 70.54561 33107 ft 513 kts 84°
2026-05-07 08:33 41.12757 70.63985 33101 ft 513 kts 84°
2026-05-07 08:34 41.13439 70.73431 33353 ft 516 kts 84°
2026-05-07 08:34 41.13770 70.78161 33696 ft 515 kts 84°
2026-05-07 08:34 41.14095 70.82881 34069 ft 513 kts 83°
2026-05-07 08:35 41.14414 70.87590 34360 ft 513 kts 83°
2026-05-07 08:35 41.14732 70.92302 34620 ft 512 kts 83°
2026-05-07 08:35 41.15048 70.96988 34944 ft 509 kts 83°
2026-05-07 08:35 41.15363 71.01674 35019 ft 511 kts 83°
2026-05-07 08:36 41.15989 71.11060 35039 ft 509 kts 83°
2026-05-07 08:36 41.16603 71.20388 35015 ft 506 kts 83°
2026-05-07 08:37 41.17206 71.29670 34994 ft 504 kts 83°
2026-05-07 08:37 41.17800 71.38924 34984 ft 503 kts 83°
2026-05-07 08:38 41.18387 71.48169 34980 ft 502 kts 83°
2026-05-07 08:38 41.18966 71.57417 34982 ft 503 kts 83°
2026-05-07 08:39 41.19538 71.66674 34980 ft 503 kts 83°
2026-05-07 08:39 41.20104 71.75943 34983 ft 504 kts 83°
2026-05-07 08:40 41.20658 71.85215 34991 ft 503 kts 83°
2026-05-07 08:40 41.21194 71.94478 34997 ft 503 kts 83°
2026-05-07 08:41 41.21723 72.03728 35002 ft 502 kts 83°
2026-05-07 08:41 41.22246 72.12960 35010 ft 501 kts 83°
2026-05-07 08:42 41.22761 72.22177 35025 ft 500 kts 83°
2026-05-07 08:42 41.23288 72.31376 35038 ft 499 kts 83°
2026-05-07 08:43 41.23815 72.40555 35041 ft 499 kts 83°
2026-05-07 08:43 41.24333 72.49738 35065 ft 498 kts 83°
2026-05-07 08:44 41.24841 72.58916 35061 ft 498 kts 84°
2026-05-07 08:44 41.25333 72.68104 35075 ft 498 kts 84°
2026-05-07 08:45 41.25808 72.77289 35084 ft 498 kts 84°
2026-05-07 08:45 41.26277 72.86480 35082 ft 498 kts 84°
2026-05-07 08:46 41.26739 72.95670 35089 ft 498 kts 84°
2026-05-07 08:46 41.27197 73.04860 35106 ft 498 kts 84°
2026-05-07 08:47 41.27645 73.14053 35112 ft 498 kts 85°
2026-05-07 08:47 41.28087 73.23246 35119 ft 498 kts 85°
2026-05-07 08:48 41.28521 73.32436 35143 ft 498 kts 85°
2026-05-07 08:48 41.28948 73.41629 35136 ft 498 kts 85°
2026-05-07 08:49 41.29365 73.50766 35145 ft 498 kts 85°
2026-05-07 08:49 41.29778 73.59957 35155 ft 497 kts 85°
2026-05-07 08:50 41.30183 73.69196 35158 ft 497 kts 85°
2026-05-07 08:50 41.30581 73.78376 35161 ft 497 kts 85°
2026-05-07 08:51 41.30968 73.87479 35165 ft 496 kts 86°
2026-05-07 08:51 41.31349 73.96615 35157 ft 495 kts 86°
2026-05-07 08:52 41.31797 74.05751 35158 ft 494 kts 84°
2026-05-07 08:52 41.32483 74.14833 35160 ft 493 kts 83°
2026-05-07 08:53 41.33183 74.23905 35170 ft 493 kts 83°
2026-05-07 08:53 41.33837 74.32977 35175 ft 493 kts 83°
2026-05-07 08:54 41.34464 74.42049 35168 ft 492 kts 83°
2026-05-07 08:54 41.35085 74.51108 35172 ft 491 kts 83°
2026-05-07 08:55 41.35698 74.60151 35169 ft 490 kts 83°
2026-05-07 08:55 41.36306 74.69188 35182 ft 490 kts 83°
2026-05-07 08:56 41.36904 74.78213 35185 ft 490 kts 83°
2026-05-07 08:56 41.37498 74.87251 35178 ft 490 kts 83°
2026-05-07 08:57 41.38084 74.96298 35192 ft 491 kts 83°
2026-05-07 08:57 41.38667 75.05352 35190 ft 491 kts 83°
2026-05-07 08:58 41.39242 75.14414 35178 ft 491 kts 83°
2026-05-07 08:58 41.39807 75.23415 35166 ft 491 kts 83°
2026-05-07 08:59 41.40367 75.32473 35161 ft 490 kts 83°
2026-05-07 08:59 41.40919 75.41505 35144 ft 489 kts 83°
2026-05-07 09:00 41.41463 75.50522 35146 ft 488 kts 83°
2026-05-07 09:00 41.41999 75.59528 35127 ft 487 kts 83°
2026-05-07 09:01 41.42528 75.68516 35129 ft 487 kts 83°
2026-05-07 09:01 41.43051 75.77516 35121 ft 487 kts 83°
2026-05-07 09:02 41.43568 75.86527 35118 ft 488 kts 83°
2026-05-07 09:02 41.44083 75.95559 35115 ft 489 kts 83°
2026-05-07 09:03 41.44589 76.04591 35134 ft 489 kts 83°
2026-05-07 09:03 41.45087 76.13617 35133 ft 488 kts 83°
2026-05-07 09:04 41.45579 76.22645 35133 ft 488 kts 83°
2026-05-07 09:04 41.46059 76.31602 35133 ft 487 kts 83°
2026-05-07 09:05 41.46534 76.40607 35143 ft 487 kts 83°
2026-05-07 09:05 41.47003 76.49601 35140 ft 486 kts 83°
2026-05-07 09:06 41.47463 76.58577 35155 ft 485 kts 83°
2026-05-07 09:06 41.47915 76.67538 35140 ft 484 kts 83°
2026-05-07 09:07 41.48358 76.76465 35163 ft 481 kts 83°
2026-05-07 09:07 41.48794 76.85360 35177 ft 481 kts 83°
2026-05-07 09:08 41.49224 76.94263 35180 ft 480 kts 83°
2026-05-07 09:08 41.49644 77.03133 35199 ft 480 kts 83°
2026-05-07 09:09 41.50058 77.12007 35203 ft 479 kts 83°
2026-05-07 09:09 41.50464 77.20887 35204 ft 480 kts 83°
2026-05-07 09:10 41.50866 77.29788 35211 ft 481 kts 83°
2026-05-07 09:10 41.51262 77.38699 35204 ft 481 kts 83°
2026-05-07 09:11 41.51649 77.47609 35216 ft 481 kts 83°
2026-05-07 09:11 41.52029 77.56519 35221 ft 481 kts 83°
2026-05-07 09:12 41.52403 77.65423 35218 ft 481 kts 83°
2026-05-07 09:12 41.52767 77.74264 35219 ft 480 kts 83°
2026-05-07 09:13 41.53127 77.83155 35224 ft 480 kts 83°
2026-05-07 09:13 41.53479 77.92043 35218 ft 480 kts 83°
2026-05-07 09:14 41.53823 78.00925 35221 ft 479 kts 83°
2026-05-07 09:14 41.54162 78.09793 35214 ft 478 kts 83°
2026-05-07 09:15 41.54494 78.18647 35209 ft 476 kts 84°
2026-05-07 09:15 41.54815 78.27470 35233 ft 476 kts 84°
2026-05-07 09:16 41.55130 78.36299 35233 ft 476 kts 84°
2026-05-07 09:16 41.55441 78.45142 35239 ft 477 kts 84°
2026-05-07 09:17 41.55744 78.53994 35230 ft 478 kts 84°
2026-05-07 09:17 41.56040 78.62864 35227 ft 478 kts 84°
2026-05-07 09:18 41.56283 78.70232 35239 ft 478 kts 84°
2026-05-07 09:18 41.56532 78.79114 35232 ft 480 kts 87°
2026-05-07 09:19 41.55584 78.89431 35206 ft 486 kts 101°
2026-05-07 09:19 41.53832 78.98166 35210 ft 486 kts 102°
2026-05-07 09:20 41.52377 79.05217 35270 ft 485 kts 102°
2026-05-07 09:20 41.50340 79.15258 35249 ft 489 kts 102°
2026-05-07 09:21 41.48863 79.22619 35228 ft 491 kts 102°
2026-05-07 09:21 41.45883 79.37424 35193 ft 495 kts 102°
2026-05-07 09:22 41.38639 79.72918 35109 ft 493 kts 103°
2026-05-07 09:22 41.31448 80.07563 35080 ft 482 kts 104°
2026-05-07 09:23 41.24127 80.42199 35135 ft 499 kts 105°
2026-05-07 09:23 41.16464 80.77592 35050 ft 491 kts 105°
2026-05-07 09:24 41.08908 81.11965 35102 ft 487 kts 105°
2026-05-07 09:24 41.01095 81.46952 35116 ft 501 kts 106°
2026-05-07 09:25 40.93680 81.81940 35022 ft 485 kts 103°
2026-05-07 09:25 40.87140 82.16540 35137 ft 492 kts 103°
2026-05-07 09:26 40.80245 82.51918 35079 ft 495 kts 103°
2026-05-07 09:26 40.73398 82.86457 35085 ft 483 kts 103°
2026-05-07 09:27 40.66396 83.21191 35147 ft 498 kts 104°
2026-05-07 09:27 40.59229 83.56135 35043 ft 485 kts 104°
2026-05-07 09:28 40.55705 83.73111 35062 ft 479 kts 104°
2026-05-07 09:28 40.48623 84.07316 35136 ft 494 kts 104°
2026-05-07 09:29 40.41511 84.42150 35046 ft 486 kts 104°
2026-05-07 09:29 40.34484 84.75927 35110 ft 481 kts 105°
2026-05-07 09:30 40.27218 85.10294 35124 ft 494 kts 105°
2026-05-07 09:30 40.19887 85.44414 35049 ft 478 kts 105°
2026-05-07 09:31 40.12578 85.77916 35134 ft 486 kts 105°
2026-05-07 09:31 40.04500 86.12048 35062 ft 491 kts 109°
2026-05-07 09:32 39.95419 86.44954 35052 ft 477 kts 109°
2026-05-07 09:32 39.86291 86.77899 35139 ft 492 kts 109°
2026-05-07 09:33 39.76917 87.11277 35062 ft 484 kts 109°
2026-05-07 09:33 39.67697 87.43703 35090 ft 480 kts 109°
2026-05-07 09:34 39.58186 87.76734 35118 ft 495 kts 109°
2026-05-07 09:34 39.48569 88.09711 35035 ft 481 kts 110°
2026-05-07 09:35 39.38996 88.42145 35121 ft 491 kts 110°
2026-05-07 09:35 39.29010 88.75561 35119 ft 500 kts 111°
2026-05-07 09:36 39.19094 89.08338 35102 ft 488 kts 112°
2026-05-07 09:36 39.08919 89.41561 35248 ft 505 kts 114°
2026-05-07 09:37 38.98451 89.75337 35262 ft 504 kts 115°
2026-05-07 09:37 38.88140 90.08199 35323 ft 500 kts 116°
2026-05-07 09:38 38.77460 90.41818 35401 ft 515 kts 117°
2026-05-07 09:38 38.66828 90.75245 35272 ft 499 kts 115°
2026-05-07 09:39 38.57488 91.08881 35341 ft 509 kts 115°
2026-05-07 09:39 38.47764 91.43210 35245 ft 512 kts 115°
2026-05-07 09:40 38.38140 91.76746 35204 ft 500 kts 115°
2026-05-07 09:40 38.28341 92.10459 35243 ft 515 kts 115°
2026-05-07 09:41 38.18372 92.44360 35119 ft 503 kts 115°
2026-05-07 09:41 38.06909 92.76293 35147 ft 500 kts 120°
2026-05-07 09:42 37.94716 93.08760 35120 ft 515 kts 120°
2026-05-07 09:42 37.82476 93.41017 35026 ft 501 kts 120°
2026-05-07 09:43 37.70256 93.72860 35107 ft 510 kts 120°
2026-05-07 09:43 37.57737 94.05176 35045 ft 508 kts 120°
2026-05-07 09:44 37.45416 94.36640 35086 ft 500 kts 120°
2026-05-07 09:44 37.32819 94.68483 35100 ft 514 kts 120°
2026-05-07 09:45 37.20154 95.00195 35008 ft 500 kts 121°
2026-05-07 09:45 37.07540 95.31443 35092 ft 511 kts 121°
2026-05-07 09:46 36.94631 95.63570 35050 ft 515 kts 120°
2026-05-07 09:46 36.82142 95.95116 35032 ft 500 kts 120°
2026-05-07 09:47 36.69657 96.26616 35123 ft 514 kts 120°
2026-05-07 09:47 36.57073 96.58269 35027 ft 501 kts 120°
2026-05-07 09:48 36.44859 96.89231 35141 ft 504 kts 120°
2026-05-07 09:48 36.32237 97.20958 35123 ft 515 kts 120°
2026-05-07 09:49 36.22269 97.45799 35105 ft 504 kts 121°
2026-05-07 09:49 36.19127 97.53584 35169 ft 509 kts 121°
2026-05-07 09:50 36.15933 97.61483 35176 ft 515 kts 121°
2026-05-07 09:50 36.12774 97.69442 35190 ft 515 kts 120°
2026-05-07 09:51 36.09722 97.77387 35181 ft 515 kts 120°
2026-05-07 09:51 36.06658 97.85367 35211 ft 513 kts 120°
2026-05-07 09:52 36.03581 97.93316 35225 ft 512 kts 120°
2026-05-07 09:52 36.00498 98.01236 35239 ft 511 kts 120°
2026-05-07 09:53 35.97413 98.09135 35238 ft 510 kts 120°
2026-05-07 09:53 35.94329 98.17014 35246 ft 510 kts 121°
2026-05-07 09:54 35.91240 98.24892 35254 ft 510 kts 120°
2026-05-07 09:54 35.88142 98.32774 35261 ft 511 kts 121°
2026-05-07 09:55 35.85034 98.40659 35249 ft 512 kts 121°
2026-05-07 09:55 35.81921 98.48537 35251 ft 511 kts 121°
2026-05-07 09:56 35.78804 98.56409 35250 ft 511 kts 121°
2026-05-07 09:56 35.75680 98.64281 35242 ft 511 kts 121°
2026-05-07 09:57 35.72550 98.72144 35235 ft 512 kts 121°
2026-05-07 09:57 35.69415 98.80002 35233 ft 511 kts 121°
2026-05-07 09:58 35.66278 98.87848 35239 ft 511 kts 121°
2026-05-07 09:58 35.63133 98.95695 35239 ft 512 kts 121°
2026-05-07 09:59 35.60019 99.03443 35249 ft 512 kts 121°
2026-05-07 09:59 35.56860 99.11287 35256 ft 513 kts 121°
2026-05-07 10:00 35.53692 99.19134 35243 ft 513 kts 121°
2026-05-07 10:00 35.50541 99.26921 35260 ft 512 kts 121°
2026-05-07 10:01 35.47368 99.34745 35262 ft 512 kts 121°
2026-05-07 10:01 35.44188 99.42560 35260 ft 512 kts 121°
2026-05-07 10:02 35.41009 99.50363 35282 ft 512 kts 121°
2026-05-07 10:02 35.37821 99.58171 35284 ft 512 kts 121°
2026-05-07 10:03 35.34624 99.65977 35286 ft 513 kts 121°
2026-05-07 10:03 35.31416 99.73788 35300 ft 514 kts 121°
2026-05-07 10:04 35.28196 99.81611 35287 ft 514 kts 121°
2026-05-07 10:04 35.24973 99.89429 35290 ft 515 kts 121°
2026-05-07 10:05 35.21740 99.97251 35279 ft 516 kts 121°
2026-05-07 10:05 35.18492 100.05082 35279 ft 517 kts 121°
2026-05-07 10:06 35.15237 100.12924 35269 ft 518 kts 121°
2026-05-07 10:06 35.12522 100.19449 35253 ft 519 kts 121°
2026-05-07 10:07 35.09246 100.27303 35265 ft 519 kts 121°
2026-05-07 10:07 35.05959 100.35163 35252 ft 521 kts 121°
2026-05-07 10:08 35.02661 100.43031 35258 ft 521 kts 121°
2026-05-07 10:08 34.99359 100.50896 35251 ft 520 kts 122°
2026-05-07 10:09 34.96056 100.58739 35266 ft 520 kts 122°
2026-05-07 10:09 34.92748 100.66577 35273 ft 520 kts 122°
2026-05-07 10:10 34.89438 100.74404 35287 ft 520 kts 122°
2026-05-07 10:10 34.86114 100.82238 35284 ft 521 kts 122°
2026-05-07 10:11 34.82787 100.90068 35299 ft 521 kts 122°
2026-05-07 10:11 34.79451 100.97900 35302 ft 522 kts 122°
2026-05-07 10:12 34.76128 101.05682 35306 ft 522 kts 122°
2026-05-07 10:12 34.72753 101.13570 35304 ft 523 kts 122°
2026-05-07 10:13 34.69413 101.21358 35300 ft 523 kts 122°
2026-05-07 10:13 34.66041 101.29200 35299 ft 524 kts 122°
2026-05-07 10:14 34.62661 101.37045 35302 ft 524 kts 122°
2026-05-07 10:14 34.59273 101.44886 35302 ft 525 kts 122°
2026-05-07 10:15 34.55878 101.52732 35302 ft 525 kts 122°
2026-05-07 10:15 34.52474 101.60577 35309 ft 526 kts 122°
2026-05-07 10:16 34.49063 101.68418 35324 ft 526 kts 122°
2026-05-07 10:16 34.45641 101.76269 35322 ft 527 kts 122°
2026-05-07 10:17 34.42213 101.84117 35322 ft 527 kts 122°
2026-05-07 10:17 34.38774 101.91972 35327 ft 528 kts 122°
2026-05-07 10:18 34.35327 101.99828 35318 ft 529 kts 122°
2026-05-07 10:18 34.31873 102.07679 35317 ft 528 kts 122°
2026-05-07 10:19 34.28415 102.15523 35344 ft 529 kts 122°
2026-05-07 10:19 34.24948 102.23373 35337 ft 529 kts 122°
2026-05-07 10:20 34.21473 102.31222 35328 ft 530 kts 122°
2026-05-07 10:20 34.18022 102.39020 35334 ft 530 kts 122°
2026-05-07 10:21 34.14632 102.46926 35328 ft 530 kts 121°
2026-05-07 10:21 34.11250 102.54901 35320 ft 530 kts 121°
2026-05-07 10:22 34.07903 102.62748 35317 ft 529 kts 121°
2026-05-07 10:22 34.04527 102.70614 35321 ft 528 kts 121°
2026-05-07 10:23 34.01140 102.78476 35317 ft 529 kts 121°
2026-05-07 10:23 33.97745 102.86338 35314 ft 529 kts 121°
2026-05-07 10:24 33.94346 102.94197 35316 ft 529 kts 121°
2026-05-07 10:24 33.90943 103.02050 35306 ft 529 kts 121°
2026-05-07 10:25 33.87537 103.09891 35295 ft 528 kts 121°
2026-05-07 10:25 33.84136 103.17702 35313 ft 527 kts 122°
2026-05-07 10:26 33.80736 103.25492 35309 ft 526 kts 122°
2026-05-07 10:26 33.77335 103.33266 35309 ft 525 kts 122°
2026-05-07 10:27 33.73931 103.41035 35306 ft 526 kts 122°
2026-05-07 10:27 33.70517 103.48804 35312 ft 526 kts 122°
2026-05-07 10:28 33.67097 103.56571 35296 ft 526 kts 122°
2026-05-07 10:28 33.63675 103.64326 35314 ft 525 kts 122°
2026-05-07 10:29 33.60253 103.72063 35315 ft 525 kts 122°
2026-05-07 10:29 33.56846 103.79754 35315 ft 526 kts 122°
2026-05-07 10:30 33.51681 103.91371 35314 ft 527 kts 122°
2026-05-07 10:30 33.48231 103.99117 35314 ft 527 kts 122°
2026-05-07 10:31 33.44778 104.06846 35305 ft 526 kts 122°
2026-05-07 10:31 33.41323 104.14572 35292 ft 526 kts 122°
2026-05-07 10:32 33.37792 104.22216 35278 ft 520 kts 129°
2026-05-07 10:32 33.35520 104.25516 35284 ft 510 kts 141°
2026-05-07 10:32 33.32850 104.28249 35285 ft 503 kts 150°
2026-05-07 10:33 33.29903 104.30423 35277 ft 493 kts 161°
2026-05-07 10:33 33.26786 104.32082 35298 ft 489 kts 163°
2026-05-07 10:33 33.20532 104.35288 35281 ft 490 kts 162°
2026-05-07 10:34 33.14278 104.38564 35290 ft 492 kts 162°
2026-05-07 10:34 33.07997 104.41921 35300 ft 497 kts 162°
2026-05-07 10:35 33.01665 104.45310 35282 ft 500 kts 162°
2026-05-07 10:35 32.95318 104.48694 35273 ft 499 kts 161°
2026-05-07 10:36 32.88982 104.52068 35264 ft 498 kts 161°
2026-05-07 10:36 32.82671 104.55421 35279 ft 495 kts 162°
2026-05-07 10:37 32.76244 104.58138 35266 ft 484 kts 174°
2026-05-07 10:37 32.69651 104.59212 35251 ft 473 kts 185°
2026-05-07 10:38 32.63062 104.59409 35272 ft 476 kts 185°
2026-05-07 10:38 32.56396 104.59690 35257 ft 482 kts 185°
2026-05-07 10:39 32.49667 104.60000 35254 ft 485 kts 185°
2026-05-07 10:39 32.42926 104.60301 35219 ft 484 kts 185°
2026-05-07 10:40 32.36263 104.60624 35234 ft 482 kts 184°
2026-05-07 10:40 32.29526 104.60997 35232 ft 481 kts 184°
2026-05-07 10:41 32.22886 104.61367 35222 ft 481 kts 184°
2026-05-07 10:41 32.16146 104.61736 35215 ft 482 kts 185°
2026-05-07 10:42 32.09448 104.62100 35211 ft 482 kts 185°
2026-05-07 10:42 32.02749 104.62462 35203 ft 482 kts 185°
2026-05-07 10:43 31.96042 104.62827 35189 ft 482 kts 185°
2026-05-07 10:43 31.89360 104.63188 35190 ft 480 kts 185°
2026-05-07 10:44 31.82697 104.63545 35179 ft 477 kts 185°
2026-05-07 10:44 31.76060 104.63897 35193 ft 478 kts 185°
2026-05-07 10:45 31.69394 104.64165 35187 ft 480 kts 186°
2026-05-07 10:45 31.62700 104.64413 35173 ft 482 kts 186°
2026-05-07 10:46 31.55983 104.64674 35167 ft 483 kts 186°
2026-05-07 10:46 31.49255 104.64941 35162 ft 484 kts 186°
2026-05-07 10:47 31.42531 104.65209 35158 ft 483 kts 186°
2026-05-07 10:47 31.35858 104.65475 35148 ft 482 kts 186°
2026-05-07 10:48 31.29116 104.65742 35154 ft 481 kts 186°
2026-05-07 10:48 31.22465 104.66004 35157 ft 481 kts 186°
2026-05-07 10:49 31.15768 104.66268 35150 ft 482 kts 186°
2026-05-07 10:49 31.09065 104.66531 35163 ft 482 kts 186°
2026-05-07 10:50 31.02344 104.66926 35143 ft 487 kts 183°
2026-05-07 10:50 30.95592 104.67731 35152 ft 488 kts 182°
2026-05-07 10:51 30.88828 104.68538 35149 ft 489 kts 182°
2026-05-07 10:51 30.82060 104.69305 35153 ft 489 kts 183°
2026-05-07 10:52 30.75285 104.70068 35153 ft 489 kts 183°
2026-05-07 10:52 30.68511 104.70833 35160 ft 489 kts 183°
2026-05-07 10:53 30.62830 104.71475 35155 ft 490 kts 183°
2026-05-07 10:53 30.54948 104.72363 35155 ft 490 kts 183°
2026-05-07 10:54 30.48162 104.73114 35159 ft 490 kts 183°
2026-05-07 10:54 30.42522 104.73734 35155 ft 490 kts 183°
2026-05-07 10:55 30.35737 104.74482 35156 ft 490 kts 183°
2026-05-07 10:55 30.28951 104.75231 35154 ft 490 kts 183°
2026-05-07 10:56 30.22166 104.75977 35160 ft 490 kts 183°
2026-05-07 10:56 30.15379 104.76723 35159 ft 490 kts 183°
2026-05-07 10:57 30.08594 104.77468 35155 ft 490 kts 183°
2026-05-07 10:57 30.01806 104.78213 35149 ft 490 kts 183°
2026-05-07 10:58 29.95018 104.78962 35158 ft 490 kts 183°
2026-05-07 10:58 29.88225 104.79720 35152 ft 491 kts 183°
2026-05-07 10:59 29.81425 104.80479 35151 ft 491 kts 183°
2026-05-07 10:59 29.74620 104.81236 35147 ft 491 kts 183°
2026-05-07 11:00 29.67814 104.81993 35143 ft 492 kts 183°
2026-05-07 11:00 29.60997 104.82749 35144 ft 492 kts 183°
2026-05-07 11:01 29.54224 104.83498 35137 ft 493 kts 183°
2026-05-07 11:01 29.47398 104.84254 35135 ft 493 kts 183°
2026-05-07 11:02 29.40569 104.85009 35141 ft 493 kts 183°
2026-05-07 11:02 29.33734 104.86206 35138 ft 505 kts 174°
2026-05-07 11:03 29.27012 104.88869 35128 ft 518 kts 164°
2026-05-07 11:03 29.20447 104.92304 35133 ft 519 kts 163°
2026-05-07 11:04 29.13861 104.95678 35125 ft 518 kts 165°
2026-05-07 11:04 29.07259 104.98986 35121 ft 518 kts 165°
2026-05-07 11:05 29.00661 105.02304 35121 ft 518 kts 164°
2026-05-07 11:05 28.94063 105.05619 35121 ft 518 kts 164°
2026-05-07 11:06 28.87474 105.08934 35120 ft 518 kts 164°
2026-05-07 11:06 28.80885 105.12250 35120 ft 517 kts 164°
2026-05-07 11:07 28.74370 105.15783 35115 ft 521 kts 160°
2026-05-07 11:07 28.67966 105.19687 35119 ft 522 kts 159°
2026-05-07 11:08 28.61566 105.23607 35126 ft 522 kts 159°
2026-05-07 11:08 28.55149 105.27496 35118 ft 522 kts 160°
2026-05-07 11:09 28.48727 105.31363 35117 ft 522 kts 160°
2026-05-07 11:09 28.42302 105.35227 35121 ft 523 kts 160°
2026-05-07 11:10 28.35872 105.39092 35123 ft 523 kts 159°
2026-05-07 11:10 28.13139 105.52716 35141 ft 525 kts 159°
2026-05-07 11:11 27.99710 105.58345 35129 ft 505 kts 178°
2026-05-07 11:11 27.85878 105.60434 35152 ft 502 kts 179°
2026-05-07 11:11 27.72443 105.65789 35172 ft 526 kts 157°
2026-05-07 11:11 27.59539 105.73419 35174 ft 521 kts 162°
2026-05-07 11:12 27.33335 105.87365 35189 ft 521 kts 161°
2026-05-07 11:12 27.07283 106.01576 35179 ft 527 kts 153°
2026-05-07 11:13 26.96902 106.13487 35185 ft 543 kts 130°
2026-05-07 11:13 26.87950 106.27100 35197 ft 542 kts 131°
2026-05-07 11:13 26.69691 106.53998 35198 ft 542 kts 131°
2026-05-07 11:14 26.51329 106.80656 35207 ft 537 kts 136°
2026-05-07 11:14 26.30289 107.03723 35187 ft 532 kts 139°
2026-05-07 11:15 26.09241 107.26801 35152 ft 531 kts 139°
2026-05-07 11:15 25.88218 107.49740 35137 ft 529 kts 139°
2026-05-07 11:16 25.67216 107.72569 35119 ft 528 kts 139°
2026-05-07 11:16 25.45881 107.94744 35051 ft 518 kts 157°
2026-05-07 11:17 25.32295 107.98055 35099 ft 498 kts 180°
2026-05-07 11:17 25.18475 107.99605 35082 ft 501 kts 179°
2026-05-07 11:17 24.90693 108.03018 35036 ft 503 kts 179°
2026-05-07 11:18 24.62880 108.06408 35004 ft 503 kts 178°
2026-05-07 11:18 24.35033 108.09794 35014 ft 503 kts 178°
2026-05-07 11:19 24.07200 108.13169 34997 ft 503 kts 178°
2026-05-07 11:19 23.82296 108.23607 34985 ft 527 kts 115°
2026-05-07 11:20 23.80671 108.39411 35146 ft 528 kts 92°
2026-05-07 11:20 23.79876 108.55597 35026 ft 539 kts 94°
2026-05-07 11:20 23.77923 108.88161 34935 ft 529 kts 93°
2026-05-07 11:21 23.75377 109.19948 34965 ft 530 kts 103°
2026-05-07 11:21 23.70333 109.44256 34970 ft 539 kts 103°
2026-05-07 11:22 23.63868 109.75955 34960 ft 527 kts 103°
2026-05-07 11:22 23.57499 110.06679 34990 ft 525 kts 103°
2026-05-07 11:23 23.50926 110.38087 35021 ft 532 kts 103°
2026-05-07 11:23 23.44617 110.69089 34965 ft 516 kts 103°
2026-05-07 11:24 23.38107 110.99873 35057 ft 530 kts 103°
2026-05-07 11:24 23.31615 111.31090 34967 ft 521 kts 102°
2026-05-07 11:25 23.25333 111.61618 34999 ft 520 kts 103°
2026-05-07 11:25 23.18962 111.91471 35030 ft 532 kts 102°
2026-05-07 11:26 23.17361 111.99238 34985 ft 522 kts 102°
2026-05-07 11:26 23.15768 112.06922 34994 ft 522 kts 102°
2026-05-07 11:27 23.14161 112.14625 34985 ft 523 kts 102°
2026-05-07 11:27 23.12548 112.22332 34982 ft 524 kts 102°
2026-05-07 11:28 23.10940 112.29992 34992 ft 524 kts 102°
2026-05-07 11:28 23.09318 112.37708 34982 ft 524 kts 102°
2026-05-07 11:29 23.07692 112.45425 34978 ft 524 kts 102°
2026-05-07 11:29 23.06581 112.53226 34979 ft 522 kts 93°
2026-05-07 11:30 23.06110 112.61091 34982 ft 522 kts 92°
2026-05-07 11:30 23.05643 112.68953 34980 ft 522 kts 93°
2026-05-07 11:31 23.05125 112.76810 34981 ft 522 kts 93°
2026-05-07 11:31 23.04584 112.84673 34969 ft 522 kts 94°
2026-05-07 11:32 23.03771 112.96472 34973 ft 523 kts 94°
2026-05-07 11:33 23.03227 113.04344 34970 ft 523 kts 94°
2026-05-07 11:33 23.02372 113.12156 34961 ft 521 kts 108°
2026-05-07 11:33 23.00863 113.15717 34972 ft 520 kts 124°
2026-05-07 11:34 22.98541 113.18695 34984 ft 517 kts 139°
2026-05-07 11:34 22.95694 113.21069 34977 ft 516 kts 151°
2026-05-07 11:34 22.92453 113.22661 34969 ft 509 kts 165°
2026-05-07 11:35 22.85650 113.24854 34979 ft 512 kts 166°
2026-05-07 11:35 22.78810 113.27105 34988 ft 516 kts 165°
2026-05-07 11:36 22.71943 113.29480 34408 ft 527 kts 164°
2026-05-07 11:36 22.68438 113.30703 33703 ft 529 kts 164°
2026-05-07 11:36 22.64958 113.31915 33080 ft 522 kts 164°
2026-05-07 11:36 22.61515 113.33109 32398 ft 517 kts 164°
2026-05-07 11:37 22.58094 113.34292 31611 ft 516 kts 164°
2026-05-07 11:37 22.54670 113.35477 30706 ft 517 kts 164°
2026-05-07 11:37 22.51239 113.36664 29873 ft 517 kts 164°
2026-05-07 11:37 22.47830 113.37845 29176 ft 511 kts 164°
2026-05-07 11:38 22.44470 113.39009 28608 ft 503 kts 164°
2026-05-07 11:38 22.41160 113.40155 28044 ft 497 kts 164°
2026-05-07 11:38 22.37887 113.41287 27434 ft 491 kts 165°
2026-05-07 11:38 22.34644 113.42407 26798 ft 487 kts 165°
2026-05-07 11:39 22.31428 113.43517 26165 ft 484 kts 165°
2026-05-07 11:39 22.28228 113.44621 25559 ft 480 kts 165°
2026-05-07 11:39 22.25058 113.45715 24976 ft 477 kts 165°
2026-05-07 11:39 22.21910 113.46800 24412 ft 473 kts 165°
2026-05-07 11:40 22.19414 113.47683 23967 ft 471 kts 164°
2026-05-07 11:40 22.18213 113.48117 23762 ft 469 kts 164°
2026-05-07 11:41 22.15129 113.49244 23141 ft 467 kts 164°
2026-05-07 11:41 22.12067 113.50368 22536 ft 462 kts 164°
2026-05-07 11:41 22.09039 113.51476 22013 ft 457 kts 164°
2026-05-07 11:41 22.06045 113.52567 21481 ft 452 kts 164°
2026-05-07 11:42 22.03083 113.53641 20946 ft 447 kts 164°
2026-05-07 11:42 22.01092 113.54361 20581 ft 445 kts 164°
2026-05-07 11:42 21.97242 113.55794 19881 ft 440 kts 161°
2026-05-07 11:42 21.94414 113.57046 19372 ft 437 kts 159°
2026-05-07 11:43 21.92576 113.57919 19045 ft 435 kts 158°
2026-05-07 11:43 21.89866 113.59227 18767 ft 413 kts 158°
2026-05-07 11:43 21.87295 113.60455 18297 ft 387 kts 159°
2026-05-07 11:43 21.84867 113.61592 17432 ft 375 kts 159°
2026-05-07 11:44 21.82520 113.62675 16454 ft 369 kts 159°
2026-05-07 11:44 21.80173 113.63754 15435 ft 364 kts 159°
2026-05-07 11:44 21.77803 113.64842 14585 ft 370 kts 159°
2026-05-07 11:44 21.75445 113.65926 14211 ft 365 kts 158°
2026-05-07 11:45 21.73288 113.67306 13769 ft 363 kts 139°
2026-05-07 11:45 21.71774 113.69461 13370 ft 362 kts 116°
2026-05-07 11:45 21.71064 113.72028 13039 ft 358 kts 96°
2026-05-07 11:45 21.71178 113.74683 12576 ft 357 kts 76°
2026-05-07 11:46 21.72049 113.77125 12165 ft 354 kts 59°
2026-05-07 11:46 21.73567 113.79165 11740 ft 347 kts 41°
2026-05-07 11:46 21.75369 113.80878 11352 ft 345 kts 40°
2026-05-07 11:46 21.77177 113.82572 10912 ft 345 kts 40°
2026-05-07 11:47 21.78966 113.84283 10624 ft 340 kts 41°
2026-05-07 11:47 21.80693 113.85962 10560 ft 328 kts 41°
2026-05-07 11:47 21.82353 113.87584 10481 ft 316 kts 41°
2026-05-07 11:47 21.84123 113.88862 10271 ft 303 kts 18°
2026-05-07 11:48 21.86145 113.89221 10098 ft 291 kts 356°
2026-05-07 11:48 21.88109 113.88861 9863 ft 284 kts 338°
2026-05-07 11:48 21.89918 113.88041 9527 ft 281 kts 333°
2026-05-07 11:48 21.91687 113.87142 9176 ft 281 kts 333°
2026-05-07 11:49 21.93449 113.86235 8866 ft 280 kts 333°
2026-05-07 11:49 21.95199 113.85340 8552 ft 278 kts 333°
2026-05-07 11:49 21.96945 113.84455 8241 ft 276 kts 333°
2026-05-07 11:49 21.98680 113.83581 7965 ft 275 kts 333°
2026-05-07 11:50 22.00409 113.82713 7685 ft 273 kts 333°
2026-05-07 11:50 22.02129 113.81853 7380 ft 272 kts 334°
2026-05-07 11:50 22.03843 113.80998 7085 ft 271 kts 334°
2026-05-07 11:50 22.05550 113.80146 6795 ft 270 kts 334°
2026-05-07 11:51 22.07249 113.79299 6501 ft 269 kts 334°
2026-05-07 11:51 22.08940 113.78458 6199 ft 267 kts 334°
2026-05-07 11:51 22.10621 113.77621 5841 ft 263 kts 334°
2026-05-07 11:51 22.12249 113.76809 5499 ft 251 kts 334°
2026-05-07 11:52 22.13796 113.76036 5189 ft 240 kts 334°
2026-05-07 11:52 22.15281 113.75296 4849 ft 230 kts 334°
2026-05-07 11:52 22.16699 113.74589 4555 ft 219 kts 334°
2026-05-07 11:52 22.18045 113.73918 4256 ft 208 kts 334°
2026-05-07 11:53 22.19343 113.73270 3969 ft 202 kts 334°
2026-05-07 11:53 22.20602 113.72640 3683 ft 198 kts 334°
2026-05-07 11:53 22.21847 113.72018 3352 ft 197 kts 334°
2026-05-07 11:53 22.23130 113.71604 3008 ft 191 kts
2026-05-07 11:54 22.24338 113.72153 2776 ft 193 kts 41°
2026-05-07 11:54 22.25364 113.73117 2686 ft 199 kts 41°
2026-05-07 11:54 22.26431 113.74091 2486 ft 202 kts 41°
2026-05-07 11:54 22.27489 113.75075 2222 ft 197 kts 46°
2026-05-07 11:55 22.28175 113.76264 1919 ft 185 kts 69°
2026-05-07 11:55 22.28690 113.77533 1782 ft 180 kts 71°
2026-05-07 11:55 22.29116 113.78764 1646 ft 173 kts 73°
2026-05-07 11:55 22.29496 113.79940 1556 ft 159 kts 73°
2026-05-07 11:56 22.29856 113.81064 1408 ft 159 kts 74°
2026-05-07 11:56 22.30214 113.82180 1171 ft 154 kts 74°
2026-05-07 11:56 22.30562 113.83265 987 ft 153 kts 73°
2026-05-07 11:56 22.30911 113.84350 795 ft 153 kts 74°
2026-05-07 11:57 22.31258 113.85433 620 ft 153 kts 73°
2026-05-07 11:57 22.31605 113.86508 395 ft 150 kts 72°
2026-05-07 11:57 22.31951 113.87568 207 ft 149 kts 73°
2026-05-07 11:57 22.32287 113.88615 46 ft 144 kts 73°
2026-05-07 11:58 22.32581 113.89527 42 ft 108 kts 71°
2026-05-07 11:58 22.32777 113.90139 42 ft 64 kts 70°
2026-05-07 11:58 22.32880 113.90451 41 ft 26 kts 71°
2026-05-07 11:58 22.32932 113.90628 42 ft 22 kts 78°
2026-05-07 11:59 22.32938 113.90786 42 ft 19 kts 96°
2026-05-07 11:59 22.32923 113.90882 43 ft 11 kts 101°
2026-05-07 11:59 22.32909 113.90962 43 ft 11 kts 101°
2026-05-07 11:59 22.32898 113.91042 43 ft 11 kts 91°
2026-05-07 12:00 22.32915 113.91120 43 ft 11 kts 71°
2026-05-07 12:00 22.32939 113.91198 43 ft 11 kts 71°
2026-05-07 12:00 22.32964 113.91274 43 ft 11 kts 70°
2026-05-07 12:00 22.32989 113.91351 43 ft 11 kts 70°
2026-05-07 12:01 22.33014 113.91427 43 ft 11 kts 70°
2026-05-07 12:01 22.33041 113.91511 43 ft 13 kts 71°
2026-05-07 12:01 22.33075 113.91616 42 ft 16 kts 71°
2026-05-07 12:01 22.33116 113.91742 42 ft 19 kts 71°
2026-05-07 12:02 22.33160 113.91880 42 ft 19 kts 71°
2026-05-07 12:02 22.33202 113.92011 42 ft 16 kts 70°
2026-05-07 12:02 22.33208 113.92091 42 ft 10 kts 117°
2026-05-07 12:02 22.33143 113.92130 42 ft 13 kts 162°
2026-05-07 12:03 22.33059 113.92161 42 ft 13 kts 161°
2026-05-07 12:03 22.32974 113.92192 42 ft 13 kts 161°
2026-05-07 12:03 22.32885 113.92226 42 ft 16 kts 161°
2026-05-07 12:03 22.32758 113.92273 42 ft 21 kts 161°
2026-05-07 12:04 22.32619 113.92326 42 ft 21 kts 161°
2026-05-07 12:04 22.32481 113.92378 42 ft 21 kts 161°
2026-05-07 12:04 22.32343 113.92430 42 ft 20 kts 160°
2026-05-07 12:04 22.32256 113.92470 42 ft 10 kts 133°
2026-05-07 12:05 22.32255 113.92544 42 ft 10 kts 74°
2026-05-07 12:05 22.32271 113.92618 42 ft 10 kts 91°
2026-05-07 12:05 22.32225 113.92669 42 ft 8 kts 159°
2026-05-07 12:05 22.32185 113.92684 42 ft 6 kts 161°
2026-05-07 12:06 22.32143 113.92700 41 ft 7 kts 161°
2026-05-07 12:06 22.32094 113.92718 41 ft 8 kts 161°
2026-05-07 12:06 22.32038 113.92739 40 ft 9 kts 161°
2026-05-07 12:06 22.31973 113.92763 41 ft 11 kts 161°
2026-05-07 12:07 22.31902 113.92792 42 ft 11 kts 159°
2026-05-07 12:07 22.31836 113.92818 42 ft 9 kts 168°
2026-05-07 12:07 22.31783 113.92784 42 ft 9 kts 239°
2026-05-07 12:07 22.31758 113.92711 42 ft 11 kts 251°
2026-05-07 12:08 22.31729 113.92624 42 ft 14 kts 250°
2026-05-07 12:08 22.31694 113.92516 42 ft 16 kts 250°
2026-05-07 12:08 22.31658 113.92405 42 ft 16 kts 251°
2026-05-07 12:08 22.31622 113.92293 41 ft 16 kts 251°
2026-05-07 12:09 22.31586 113.92181 41 ft 16 kts 251°
2026-05-07 12:09 22.31556 113.92092 42 ft 9 kts 243°
2026-05-07 12:09 22.31503 113.92061 42 ft 9 kts 171°
2026-05-07 12:09 22.31444 113.92091 42 ft 9 kts 143°
2026-05-07 12:10 22.31407 113.92149 42 ft 9 kts 117°
2026-05-07 12:10 22.31378 113.92212 42 ft 9 kts 116°
2026-05-07 12:10 22.31350 113.92274 42 ft 9 kts 116°
2026-05-07 12:10 22.31321 113.92339 42 ft 9 kts 116°
2026-05-07 12:11 22.31294 113.92399 42 ft 7 kts 115°
2026-05-07 12:11 22.31307 113.92443 42 ft 6 kts 35°
2026-05-07 12:11 22.31338 113.92458 42 ft 3 kts 24°
2026-05-07 12:11 22.31356 113.92467 42 ft 2 kts 25°
2026-05-07 12:12 22.31359 113.92468 42 ft 0 kts 25°